KC5DAQ-22 Weather Reports


time (UTC)temp
C
wind
direction
speed
KPH
gust
KPH
rain 1hr
cm
rain 24hr
cm
rain mn
cm
humidity
%
barometer
mb
20260906214703 30 333 0.0 4.8 0.00 0.86 0.86 79 1010.1
20260906214602 30 333 0.0 4.8 0.00 0.86 0.86 79 1010.1
20260906214503 30 333 0.0 4.8 0.00 0.86 0.86 79 1010.1
20260906214403 30 333 0.0 4.8 0.00 0.86 0.86 79 1010.1
20260906214302 30 333 0.0 4.8 0.00 0.86 0.86 79 1010.1
20260906214159 30 333 1.6 4.8 0.00 0.86 0.86 79 1010.1
20260906214059 30 333 1.6 4.8 0.00 0.86 0.86 79 1010.2
20260906213957 30 333 3.2 4.8 0.00 0.86 0.86 79 1010.3
20260906213855 30 333 3.2 4.8 0.00 0.86 0.86 79 1010.3
20260906213754 30 333 3.2 4.8 0.00 0.86 0.86 79 1010.3
20260906213652 30 333 3.2 4.8 0.00 0.86 0.86 78 1010.3
20260906213550 30 333 1.6 4.8 0.00 0.86 0.86 78 1010.4
20260906213449 30 331 0.0 3.2 0.00 0.86 0.86 76 1010.4
20260906213347 30 258 0.0 6.4 0.00 0.86 0.86 76 1010.4
20260906213246 30 258 0.0 6.4 0.00 0.86 0.86 77 1010.3
20260906213145 30 258 0.0 6.4 0.00 0.86 0.86 77 1010.3
20260906213044 30 258 1.6 8.0 0.00 0.86 0.86 76 1010.3
20260906212943 30 258 1.6 8.0 0.00 0.86 0.86 77 1010.3
20260906212839 30 258 1.6 8.0 0.00 0.86 0.86 76 1010.3
20260906212738 30 258 0.0 8.0 0.00 0.86 0.86 76 1010.2
20260906212638 30 258 1.6 8.0 0.00 0.86 0.86 77 1010.3
20260906212537 30 258 3.2 8.0 0.00 0.86 0.86 76 1010.3
20260906212434 30 258 4.8 8.0 0.00 0.86 0.86 76 1010.2
20260906212333 30 259 4.8 8.0 0.00 0.86 0.86 76 1010.3
20260906212231 30 252 6.4 8.0 0.00 0.86 0.86 76 1010.2
20260906212131 30 244 6.4 8.0 0.00 0.86 0.86 76 1010.3
20260906212032 30 235 6.4 8.0 0.00 0.86 0.86 76 1010.2
20260906211933 30 234 6.4 8.0 0.00 0.86 0.86 76 1010.3
20260906211831 30 243 4.8 8.0 0.00 0.86 0.86 76 1010.3
20260906211732 30 234 4.8 6.4 0.00 0.86 0.86 76 1010.4
20260906211631 30 257 4.8 6.4 0.00 0.86 0.86 76 1010.4
20260906211531 30 257 4.8 6.4 0.00 0.86 0.86 76 1010.5
20260906211433 30 258 4.8 6.4 0.00 0.86 0.86 76 1010.5
20260906211333 30 258 4.8 6.4 0.00 0.86 0.86 76 1010.6
20260906211232 30 264 3.2 6.4 0.00 0.86 0.86 76 1010.6
20260906211131 30 264 3.2 6.4 0.00 0.86 0.86 76 1010.7
20260906211032 30 264 3.2 6.4 0.00 0.86 0.86 76 1010.9
20260906210931 30 264 3.2 6.4 0.00 0.86 0.86 76 1010.9
20260906210832 30 264 3.2 6.4 0.00 0.86 0.86 76 1010.9
20260906210731 30 264 1.6 6.4 0.00 0.86 0.86 76 1011.0
20260906210631 30 265 1.6 6.4 0.00 0.86 0.86 76 1010.9
20260906210531 30 265 3.2 8.0 0.00 0.86 0.86 76 1010.9
20260906210431 30 265 3.2 8.0 0.00 0.86 0.86 75 1011.0
20260906210331 30 266 3.2 8.0 0.00 0.86 0.86 75 1011.0
20260906210231 30 266 1.6 8.0 0.00 0.86 0.86 75 1011.0
20260906210129 30 266 3.2 8.0 0.00 0.86 0.86 76 1010.9
20260906210030 30 268 3.2 8.0 0.00 0.86 0.86 76 1010.8
20260906205926 30 268 3.2 8.0 0.00 0.86 0.86 76 1010.9
20260906205824 30 268 4.8 8.0 0.00 0.86 0.86 75 1010.8
20260906205723 30 268 4.8 8.0 0.00 0.86 0.86 75 1010.7
20260906205621 30 275 4.8 8.0 0.00 0.86 0.86 75 1010.6
20260906205519 30 252 4.8 8.0 0.00 0.86 0.86 75 1010.6
20260906205418 30 269 4.8 8.0 0.00 0.86 0.86 75 1010.6
20260906205317 30 265 4.8 9.7 0.00 0.86 0.86 75 1010.6
20260906205216 30 257 4.8 9.7 0.00 0.86 0.86 75 1010.6
20260906205114 30 238 4.8 9.7 0.00 0.86 0.86 75 1010.6
20260906205004 30 250 4.8 9.7 0.00 0.86 0.86 75 1010.6
20260906204904 30 250 4.8 9.7 0.00 0.86 0.86 75 1010.6
20260906204804 30 266 4.8 9.7 0.00 0.86 0.86 75 1010.7
20260906204704 30 279 4.8 9.7 0.00 0.86 0.86 75 1010.7
20260906204602 30 257 6.4 9.7 0.00 0.86 0.86 75 1010.6
20260906204505 30 255 8.0 9.7 0.00 0.86 0.86 75 1010.6
20260906204404 30 244 6.4 9.7 0.00 0.86 0.86 75 1010.6
20260906204303 30 224 4.8 9.7 0.00 0.86 0.86 75 1010.6
20260906204203 30 231 4.8 9.7 0.00 0.86 0.86 75 1010.6
20260906204103 30 285 4.8 9.7 0.00 0.86 0.86 75 1010.6
20260906204003 30 289 4.8 9.7 0.00 0.86 0.86 75 1010.8
20260906203902 30 282 4.8 9.7 0.00 0.86 0.86 75 1010.8
20260906203802 30 278 3.2 9.7 0.00 0.86 0.86 75 1010.8
20260906203703 30 278 4.8 9.7 0.00 0.86 0.86 75 1010.9
20260906203602 30 278 4.8 9.7 0.00 0.86 0.86 75 1010.8
20260906203501 30 245 4.8 9.7 0.00 0.86 0.86 74 1010.9
20260906203358 30 227 4.8 9.7 0.00 0.86 0.86 74 1011.0
20260906203257 30 257 4.8 9.7 0.00 0.86 0.86 74 1010.8
20260906203155 30 250 3.2 9.7 0.00 0.86 0.86 75 1010.8
20260906203055 30 203 4.8 9.7 0.00 0.86 0.86 74 1010.8
20260906202952 30 202 6.4 9.7 0.00 0.86 0.86 74 1010.7
20260906202851 30 216 4.8 9.7 0.00 0.86 0.86 75 1010.8
20260906202749 30 196 4.8 9.7 0.00 0.86 0.86 75 1010.7
20260906202647 30 155 4.8 9.7 0.00 0.86 0.86 75 1010.8
20260906202546 30 212 6.4 11.3 0.00 0.86 0.86 75 1010.8
20260906202445 30 203 6.4 14.5 0.00 0.86 0.86 75 1010.7
20260906202344 30 182 4.8 14.5 0.00 0.86 0.86 75 1010.8
20260906202241 30 190 6.4 14.5 0.00 0.86 0.86 75 1010.8
20260906202139 30 231 6.4 14.5 0.00 0.86 0.86 76 1010.8
20260906202040 30 244 6.4 14.5 0.00 0.86 0.86 76 1010.8
20260906201938 30 250 8.0 14.5 0.00 0.86 0.86 76 1010.8
20260906201836 30 228 8.0 14.5 0.00 0.86 0.86 76 1010.9
20260906201735 30 266 8.0 17.7 0.00 0.86 0.86 76 1010.9
20260906201631 30 262 8.0 17.7 0.00 0.86 0.86 76 1010.9
20260906201531 30 240 8.0 17.7 0.00 0.86 0.86 76 1010.8
20260906201433 30 264 8.0 17.7 0.00 0.86 0.86 76 1010.8
20260906201331 30 223 6.4 17.7 0.00 0.86 0.86 77 1010.9
20260906201231 30 274 8.0 17.7 0.00 0.86 0.86 76 1010.8
20260906201131 30 221 8.0 17.7 0.00 0.86 0.86 77 1010.7
20260906201029 30 221 6.4 17.7 0.00 0.86 0.86 77 1010.8
20260906200928 30 151 9.7 19.3 0.00 0.86 0.86 77 1010.7
20260906200826 30 203 11.3 19.3 0.00 0.86 0.86 77 1010.7
20260906200724 30 200 12.9 19.3 0.00 0.86 0.86 78 1010.7
20260906200622 30 220 11.3 20.9 0.00 0.86 0.86 79 1010.7
20260906200523 30 212 8.0 20.9 0.00 0.86 0.86 79 1010.7
20260906200420 30 204 8.0 20.9 0.00 0.86 0.86 80 1010.6
20260906200319 30 254 8.0 22.5 0.00 0.86 0.86 80 1010.7
20260906200217 30 216 6.4 22.5 0.00 0.86 0.86 80 1010.7
20260906200116 30 213 9.7 22.5 0.00 0.86 0.86 80 1010.8
20260906200015 30 217 11.3 22.5 0.00 0.86 0.86 80 1010.8
20260906195913 30 200 9.7 22.5 0.00 0.86 0.86 80 1010.8
20260906195811 30 255 11.3 22.5 0.00 0.86 0.86 81 1010.9
20260906195709 30 204 12.9 22.5 0.00 0.86 0.86 81 1010.9
20260906195608 30 219 11.3 24.1 0.00 0.86 0.86 82 1010.9
20260906195508 30 241 9.7 24.1 0.00 0.86 0.86 82 1010.9
20260906195405 30 209 11.3 24.1 0.00 0.86 0.86 82 1010.9
20260906195306 30 209 12.9 24.1 0.00 0.86 0.86 82 1010.9
20260906195202 30 192 11.3 24.1 0.00 0.86 0.86 82 1010.8
20260906195102 30 240 11.3 24.1 0.00 0.86 0.86 82 1010.8
20260906195003 30 237 11.3 24.1 0.00 0.86 0.86 81 1010.9
20260906194903 30 241 9.7 24.1 0.00 0.86 0.86 81 1010.8
20260906194802 30 166 12.9 24.1 0.00 0.86 0.86 81 1010.9
20260906194702 30 195 16.1 24.1 0.00 0.86 0.86 80 1010.9
20260906194603 30 224 17.7 24.1 0.00 0.86 0.86 80 1010.9
20260906194502 30 202 16.1 24.1 0.00 0.86 0.86 80 1010.9
20260906194402 30 197 12.9 22.5 0.00 0.86 0.86 80 1010.8
20260906194303 30 202 12.9 22.5 0.00 0.86 0.86 82 1010.9
20260906194202 30 250 12.9 22.5 0.00 0.86 0.86 82 1010.8
20260906194102 30 265 14.5 22.5 0.00 0.86 0.86 82 1010.9
20260906194003 30 204 14.5 22.5 0.00 0.86 0.86 83 1010.9
20260906193904 29 179 11.3 22.5 0.00 0.86 0.86 82 1011.0
20260906193803 29 197 11.3 22.5 0.00 0.86 0.86 83 1011.0
20260906193701 29 202 12.9 22.5 0.00 0.86 0.86 82 1011.1
20260906193601 29 217 9.7 22.5 0.00 0.86 0.86 82 1011.1
20260906193502 29 202 9.7 22.5 0.00 0.86 0.86 83 1011.1
20260906193401 29 261 11.3 22.5 0.00 0.86 0.86 82 1011.1
20260906193302 29 247 12.9 25.7 0.00 0.86 0.86 82 1011.2
20260906193202 29 245 12.9 25.7 0.00 0.86 0.86 82 1011.2
20260906193102 29 243 14.5 25.7 0.00 0.86 0.86 81 1011.3
20260906193001 29 192 16.1 25.7 0.00 0.86 0.86 81 1011.3
20260906192901 29 230 12.9 25.7 0.00 0.86 0.86 80 1011.3
20260906192802 29 235 9.7 25.7 0.00 0.86 0.86 81 1011.4
20260906192701 29 257 8.0 25.7 0.00 0.86 0.86 81 1011.4
20260906192602 29 183 8.0 25.7 0.00 0.86 0.86 81 1011.4
20260906192503 29 224 12.9 25.7 0.00 0.86 0.86 80 1011.5
20260906192401 29 224 14.5 25.7 0.00 0.86 0.86 80 1011.5
20260906192301 29 219 9.7 17.7 0.00 0.86 0.86 81 1011.5
20260906192201 29 241 8.0 16.1 0.00 0.86 0.86 81 1011.6
20260906192103 29 233 9.7 16.1 0.00 0.86 0.86 81 1011.5
20260906192000 29 226 9.7 16.1 0.00 0.86 0.86 82 1011.6
20260906191901 29 254 9.7 16.1 0.00 0.86 0.86 82 1011.6
20260906191802 29 210 9.7 22.5 0.00 0.86 0.86 81 1011.6
20260906191702 29 237 8.0 22.5 0.00 0.86 0.86 82 1011.6
20260906191602 29 217 6.4 22.5 0.00 0.86 0.86 82 1011.5
20260906191502 29 268 8.0 22.5 0.00 0.86 0.86 82 1011.5
20260906191402 29 173 9.7 22.5 0.00 0.86 0.86 82 1011.5
20260906191301 29 188 8.0 22.5 0.00 0.86 0.86 82 1011.4
20260906191201 29 196 9.7 22.5 0.00 0.86 0.86 82 1011.5
20260906191102 29 203 11.3 22.5 0.00 0.86 0.86 82 1011.4
20260906191000 29 197 12.9 22.5 0.00 0.86 0.86 82 1011.4
20260906190901 30 209 14.5 22.5 0.00 0.86 0.86 81 1011.4
20260906190801 30 226 11.3 20.9 0.00 0.86 0.86 82 1011.4
20260906190702 30 234 11.3 17.7 0.00 0.86 0.86 82 1011.4
20260906190601 30 221 12.9 17.7 0.00 0.86 0.86 82 1011.4
20260906190501 30 237 12.9 17.7 0.00 0.86 0.86 82 1011.4
20260906190400 30 243 12.9 17.7 0.00 0.86 0.86 82 1011.4
20260906190302 30 220 12.9 17.7 0.00 0.86 0.86 82 1011.5
20260906190200 30 241 11.3 17.7 0.00 0.86 0.86 82 1011.5
20260906190002 31 220 9.7 14.5 0.00 0.86 0.86 75 1011.5
20260906185901 31 220 9.7 14.5 0.00 0.86 0.86 75 1011.6
20260906185801 31 220 9.7 14.5 0.00 0.86 0.86 75 1011.6
20260906185701 31 220 9.7 14.5 0.00 0.86 0.86 75 1011.6
20260906185600 31 220 9.7 14.5 0.00 0.86 0.86 75 1011.7
20260906185459 31 220 9.7 14.5 0.00 0.86 0.86 75 1011.7
20260906185400 31 220 9.7 14.5 0.00 0.86 0.86 75 1011.7
20260906185300 31 220 9.7 14.5 0.03 0.86 0.86 75 1011.8
20260906185200 31 220 9.7 14.5 0.03 0.86 0.86 75 1011.8
20260906185100 31 220 9.7 14.5 0.03 0.86 0.86 75 1011.8
20260906185001 31 245 9.7 14.5 0.03 0.86 0.86 75 1011.8
20260906184859 31 224 9.7 14.5 0.03 0.86 0.86 76 1011.7
20260906184759 30 247 9.7 16.1 0.03 0.86 0.86 77 1011.8
20260906184700 30 213 9.7 16.1 0.03 0.86 0.86 78 1011.8
20260906184559 30 248 8.0 16.1 0.03 0.86 0.86 79 1011.7
20260906184500 30 248 8.0 16.1 0.03 0.86 0.86 79 1011.7
20260906184400 30 118 6.4 16.1 0.05 0.86 0.86 79 1011.6
20260906184301 30 230 4.8 16.1 0.05 0.86 0.86 79 1011.6
20260906184159 29 179 6.4 16.1 0.05 0.86 0.86 78 1011.7
20260906184100 29 123 6.4 16.1 0.05 0.86 0.86 78 1011.6
20260906183958 29 199 9.7 16.1 0.08 0.86 0.86 78 1011.6
20260906183858 29 176 9.7 16.1 0.08 0.86 0.86 79 1011.6
20260906183800 29 192 8.0 16.1 0.08 0.86 0.86 79 1011.5
20260906183659 29 193 8.0 16.1 0.10 0.86 0.86 80 1011.5
20260906183558 29 188 9.7 16.1 0.13 0.86 0.86 80 1011.5
20260906183459 29 192 8.0 16.1 0.18 0.86 0.86 81 1011.5
20260906183359 28 178 6.4 16.1 0.20 0.86 0.86 83 1011.6
20260906183259 28 185 6.4 16.1 0.25 0.86 0.86 83 1011.6
20260906183159 28 141 4.8 16.1 0.30 0.86 0.86 84 1011.6
20260906183100 28 188 6.4 16.1 0.38 0.86 0.86 84 1011.6
20260906182958 28 116 4.8 16.1 0.43 0.86 0.86 84 1011.6
20260906182859 28 199 6.4 16.1 0.46 0.86 0.86 85 1011.7
20260906182800 28 196 6.4 16.1 0.51 0.86 0.86 84 1011.6
20260906182659 28 200 8.0 16.1 0.53 0.86 0.86 84 1011.6
20260906182559 28 162 6.4 16.1 0.58 0.86 0.86 84 1011.7
20260906182458 28 179 4.8 9.7 0.61 0.86 0.86 86 1011.7
20260906182359 28 214 3.2 9.7 0.61 0.86 0.86 87 1011.6
20260906182259 28 200 3.2 9.7 0.61 0.86 0.86 87 1011.7
20260906182158 28 140 4.8 9.7 0.61 0.86 0.86 87 1011.7
20260906182100 28 188 4.8 9.7 0.61 0.86 0.86 88 1011.6
20260906181957 28 151 4.8 9.7 0.61 0.86 0.86 88 1011.7
20260906181857 28 100 4.8 9.7 0.61 0.86 0.86 88 1011.7
20260906181757 28 172 6.4 9.7 0.64 0.86 0.86 88 1011.8
20260906181658 28 190 6.4 9.7 0.64 0.86 0.86 88 1011.9
20260906181557 28 178 4.8 9.7 0.64 0.86 0.86 89 1011.9
20260906181457 28 197 6.4 9.7 0.66 0.86 0.86 89 1011.8
20260906181400 28 190 6.4 11.3 0.66 0.86 0.86 89 1011.8
20260906181259 28 192 4.8 11.3 0.66 0.86 0.86 90 1011.8
20260906181157 28 69 4.8 14.5 0.69 0.86 0.86 90 1011.9
20260906181057 28 0 6.4 14.5 0.69 0.86 0.86 89 1011.9
20260906180957 28 0 4.8 14.5 0.69 0.86 0.86 89 1011.9
20260906180859 28 0 1.6 14.5 0.71 0.86 0.86 90 1011.9
20260906180758 28 0 1.6 14.5 0.71 0.86 0.86 91 1011.8
20260906180700 27 0 3.2 14.5 0.74 0.86 0.86 90 1011.9
20260906180557 27 79 6.4 14.5 0.74 0.86 0.86 90 1012.0
20260906180458 27 65 8.0 14.5 0.76 0.86 0.86 90 1012.0
20260906180358 27 0 8.0 14.5 0.79 0.86 0.86 90 1012.0
20260906180257 27 0 8.0 14.5 0.81 0.86 0.86 89 1011.9
20260906180158 27 0 6.4 11.3 0.84 0.86 0.86 90 1012.0
20260906180058 27 0 8.0 11.3 0.86 0.86 0.86 89 1012.0
20260906175959 27 68 8.0 11.3 0.86 0.00 0.86 89 1011.9
20260906175858 27 0 6.4 11.3 0.86 0.00 0.86 90 1011.9
20260906175758 27 0 6.4 11.3 0.86 0.00 0.86 90 1011.9
20260906175658 27 0 6.4 11.3 0.86 0.00 0.86 89 1011.9
20260906175557 27 0 6.4 11.3 0.86 0.00 0.86 90 1011.9
20260906175457 27 0 6.4 9.7 0.86 0.00 0.86 90 1011.9
20260906175357 27 0 6.4 9.7 0.86 0.00 0.84 91 1011.9
20260906175258 27 27 6.4 9.7 0.84 0.00 0.84 89 1012.0
20260906175158 27 27 6.4 9.7 0.84 0.00 0.84 89 1011.9
20260906175059 27 27 6.4 9.7 0.84 0.00 0.84 89 1011.9
20260906174958 27 27 6.4 9.7 0.84 0.00 0.84 89 1011.9
20260906174858 27 21 8.0 9.7 0.84 0.00 0.84 90 1011.9
20260906174757 27 17 8.0 9.7 0.84 0.00 0.84 90 1011.8
20260906174657 27 18 8.0 9.7 0.84 0.00 0.84 90 1011.9
20260906174559 27 13 6.4 8.0 0.84 0.00 0.84 90 1011.8
20260906174457 27 13 4.8 8.0 0.84 0.00 0.81 90 1011.8
20260906174357 27 20 6.4 8.0 0.81 0.00 0.81 90 1011.9
20260906174258 27 24 6.4 8.0 0.81 0.00 0.81 90 1011.9
20260906174157 27 25 6.4 8.0 0.81 0.00 0.81 90 1011.9
20260906174058 27 24 6.4 11.3 0.81 0.00 0.79 90 1011.8
20260906173957 27 20 6.4 14.5 0.79 0.00 0.79 90 1011.8
20260906173858 27 20 6.4 19.3 0.79 0.00 0.79 90 1011.8
20260906173757 27 14 4.8 24.1 0.79 0.00 0.76 89 1011.9
20260906173657 26 13 4.8 24.1 0.76 0.00 0.74 89 1011.9
20260906173557 26 8 4.8 24.1 0.74 0.00 0.69 88 1012.0
20260906173456 26 8 6.4 24.1 0.69 0.00 0.66 88 1012.1
20260906173358 26 6 6.4 24.1 0.66 0.00 0.61 88 1012.1
20260906173256 26 3 6.4 24.1 0.61 0.00 0.56 87 1012.1
20260906173158 27 3 9.7 24.1 0.56 0.00 0.48 87 1012.1
20260906173057 27 1 11.3 24.1 0.48 0.00 0.43 87 1012.1
20260906172957 27 0 14.5 24.1 0.43 0.00 0.41 87 1012.1
20260906172857 27 0 14.5 24.1 0.41 0.00 0.36 88 1012.1
20260906172756 28 0 11.3 16.1 0.36 0.00 0.33 89 1012.0
20260906172657 28 0 11.3 16.1 0.30 0.00 0.28 88 1012.1
20260906172557 28 0 9.7 14.5 0.28 0.00 0.25 88 1012.1
20260906172458 28 8 8.0 9.7 0.25 0.00 0.25 88 1012.1
20260906172356 28 10 6.4 8.0 0.25 0.00 0.25 87 1012.2
20260906172256 28 7 3.2 9.7 0.25 0.00 0.25 88 1012.3
20260906172157 28 1 1.6 9.7 0.25 0.00 0.25 86 1012.2
20260906172057 28 1 4.8 9.7 0.25 0.00 0.25 86 1012.3
20260906171956 28 0 4.8 9.7 0.25 0.00 0.25 86 1012.3
20260906171856 28 0 1.6 9.7 0.25 0.00 0.23 86 1012.3
20260906171756 28 238 0.0 9.7 0.23 0.00 0.23 87 1012.3
20260906171657 28 241 0.0 9.7 0.23 0.00 0.23 86 1012.3
20260906171556 28 258 3.2 9.7 0.23 0.00 0.20 87 1012.3
20260906171457 28 259 6.4 9.7 0.20 0.00 0.20 86 1012.3
20260906171357 28 262 6.4 9.7 0.20 0.00 0.20 85 1012.3
20260906171254 28 231 1.6 8.0 0.20 0.00 0.18 86 1012.3
20260906171154 28 207 1.6 9.7 0.18 0.00 0.18 86 1012.3
20260906171052 28 138 3.2 9.7 0.18 0.00 0.18 86 1012.4
20260906170949 28 152 3.2 9.7 0.15 0.00 0.15 85 1012.4
20260906170848 29 151 3.2 9.7 0.15 0.00 0.15 84 1012.4
20260906170747 29 274 3.2 9.7 0.15 0.00 0.13 85 1012.3
20260906170645 29 176 3.2 9.7 0.13 0.00 0.13 84 1012.3
20260906170542 29 164 3.2 9.7 0.10 0.00 0.10 83 1012.3
20260906170441 30 244 6.4 9.7 0.10 0.00 0.08 83 1012.3
20260906170341 30 298 6.4 9.7 0.08 0.00 0.05 80 1012.3
20260906170236 30 293 6.4 9.7 0.05 0.00 0.05 79 1012.3
20260906170134 31 321 3.2 8.0 0.03 0.00 0.00 79 1012.3
20260906170034 31 30 3.2 8.0 0.00 0.00 0.00 77 1012.3
20260906165931 31 30 3.2 8.0 0.00 0.00 0.00 77 1012.3
20260906165831 31 30 3.2 8.0 0.00 0.00 0.00 76 1012.2
20260906165732 31 30 4.8 8.0 0.00 0.00 0.00 76 1012.2
20260906165632 31 30 4.8 8.0 0.00 0.00 0.00 76 1012.2
20260906165531 31 31 4.8 8.0 0.00 0.00 0.00 76 1012.2
20260906165433 31 31 6.4 8.0 0.00 0.00 0.00 75 1012.2
20260906165331 31 32 4.8 8.0 0.00 0.00 0.00 75 1012.2
20260906165232 31 32 4.8 8.0 0.00 0.00 0.00 75 1012.1
20260906165132 31 49 3.2 8.0 0.00 0.00 0.00 75 1012.0
20260906165031 31 49 0.0 8.0 0.00 0.00 0.00 75 1012.1
20260906164931 31 49 1.6 8.0 0.00 0.00 0.00 75 1012.0
20260906164831 31 49 3.2 8.0 0.00 0.00 0.00 74 1012.1
20260906164733 31 49 4.8 8.0 0.00 0.00 0.00 74 1012.0
20260906164631 31 49 6.4 8.0 0.00 0.00 0.00 74 1012.0
20260906164531 31 45 3.2 8.0 0.00 0.00 0.00 74 1012.1
20260906164432 31 42 4.8 8.0 0.00 0.00 0.00 73 1012.1
20260906164330 31 42 4.8 8.0 0.00 0.00 0.00 74 1012.0
20260906164231 31 0 3.2 6.4 0.00 0.00 0.00 74 1012.1
20260906164131 31 0 3.2 6.4 0.00 0.00 0.00 74 1012.1
20260906164032 31 0 3.2 6.4 0.00 0.00 0.00 74 1012.1
20260906163932 31 0 3.2 6.4 0.00 0.00 0.00 74 1012.2
20260906163831 31 0 4.8 6.4 0.00 0.00 0.00 73 1012.2
20260906163731 31 0 3.2 6.4 0.00 0.00 0.00 74 1012.2
20260906163632 31 0 1.6 6.4 0.00 0.00 0.00 74 1012.2
20260906163530 31 0 1.6 6.4 0.00 0.00 0.00 74 1012.2
20260906163427 31 0 3.2 6.4 0.00 0.00 0.00 74 1012.1
20260906163325 31 0 3.2 6.4 0.00 0.00 0.00 74 1012.1
20260906163224 31 0 4.8 6.4 0.00 0.00 0.00 74 1012.1
20260906163123 31 0 3.2 6.4 0.00 0.00 0.00 74 1012.1
20260906163023 31 0 3.2 6.4 0.00 0.00 0.00 75 1012.1
20260906162920 31 0 3.2 6.4 0.00 0.00 0.00 74 1012.2
20260906162819 31 0 3.2 6.4 0.00 0.00 0.00 74 1012.1
20260906162717 31 0 3.2 6.4 0.00 0.00 0.00 75 1012.2
20260906162617 31 0 3.2 6.4 0.00 0.00 0.00 75 1012.2
20260906162515 31 0 4.8 6.4 0.00 0.00 0.00 75 1012.2
20260906162409 31 0 3.2 6.4 0.00 0.00 0.00 75 1012.1
20260906162308 31 1 3.2 6.4 0.00 0.00 0.00 75 1012.1
20260906162207 31 1 4.8 6.4 0.00 0.00 0.00 76 1012.1
20260906162106 31 3 3.2 6.4 0.00 0.00 0.00 76 1012.1
20260906162003 31 45 0.0 6.4 0.00 0.00 0.00 77 1012.1
20260906161902 31 47 1.6 6.4 0.00 0.00 0.00 77 1012.1
20260906161803 31 47 3.2 6.4 0.00 0.00 0.00 77 1012.2
20260906161703 30 47 3.2 6.4 0.00 0.00 0.00 77 1012.1
20260906161602 30 47 3.2 8.0 0.00 0.00 0.00 77 1012.2
20260906161503 31 47 4.8 11.3 0.00 0.00 0.00 76 1012.2
20260906161404 31 47 3.2 11.3 0.00 0.00 0.00 76 1012.2
20260906161303 31 32 4.8 11.3 0.00 0.00 0.00 76 1012.2
20260906161203 31 32 4.8 11.3 0.00 0.00 0.00 76 1012.2
20260906161103 31 32 4.8 11.3 0.00 0.00 0.00 76 1012.2
20260906161003 31 28 3.2 11.3 0.00 0.00 0.00 76 1012.2
20260906160902 31 27 4.8 11.3 0.00 0.00 0.00 75 1012.2
20260906160804 31 27 6.4 11.3 0.00 0.00 0.00 74 1012.2
20260906160657 31 27 6.4 11.3 0.00 0.00 0.00 74 1012.2
20260906160555 32 30 4.8 11.3 0.00 0.00 0.00 74 1012.1
20260906160455 32 8 3.2 8.0 0.00 0.00 0.00 73 1012.2
20260906160356 32 54 4.8 8.0 0.00 0.00 0.00 72 1012.2
20260906160255 32 56 6.4 8.0 0.00 0.00 0.00 72 1012.2
20260906160155 32 54 4.8 8.0 0.00 0.00 0.00 72 1012.2
20260906160054 32 24 6.4 8.0 0.00 0.00 0.00 73 1012.2
20260906155955 32 24 6.4 8.0 0.00 0.00 0.00 73 1012.1
20260906155855 32 23 4.8 8.0 0.00 0.00 0.00 75 1012.1
20260906155754 32 23 3.2 8.0 0.00 0.00 0.00 75 1012.1
20260906155654 32 23 3.2 8.0 0.00 0.00 0.00 75 1012.1
20260906155554 32 23 4.8 8.0 0.00 0.00 0.00 75 1012.0
20260906155455 32 21 4.8 8.0 0.00 0.00 0.00 75 1012.1
20260906155354 32 21 4.8 8.0 0.00 0.00 0.00 76 1012.1
20260906155255 31 21 6.4 8.0 0.00 0.00 0.00 77 1012.1
20260906155156 31 23 3.2 8.0 0.00 0.00 0.00 78 1012.2
20260906155054 31 351 1.6 6.4 0.00 0.00 0.00 78 1012.1
20260906154954 31 288 1.6 6.4 0.00 0.00 0.00 79 1012.1
20260906154854 30 286 1.6 6.4 0.00 0.00 0.00 79 1012.2
20260906154755 30 286 3.2 6.4 0.00 0.00 0.00 79 1012.2
20260906154654 30 286 3.2 6.4 0.00 0.00 0.00 79 1012.3
20260906154554 30 286 3.2 6.4 0.00 0.00 0.00 79 1012.3
20260906154455 30 288 3.2 6.4 0.00 0.00 0.00 80 1012.3
20260906154355 30 289 3.2 6.4 0.00 0.00 0.00 79 1012.3
20260906154254 30 289 1.6 6.4 0.00 0.00 0.00 79 1012.2
20260906154154 30 289 1.6 6.4 0.00 0.00 0.00 79 1012.3
20260906154056 30 289 1.6 6.4 0.00 0.00 0.00 79 1012.3
20260906153955 30 289 4.8 6.4 0.00 0.00 0.00 79 1012.3
20260906153854 30 289 3.2 6.4 0.00 0.00 0.00 79 1012.3
20260906153755 30 305 3.2 6.4 0.00 0.00 0.00 79 1012.3
20260906153654 30 305 3.2 6.4 0.00 0.00 0.00 79 1012.3
20260906153555 30 305 3.2 6.4 0.00 0.00 0.00 79 1012.3
20260906153455 30 306 3.2 6.4 0.00 0.00 0.00 80 1012.3
20260906153355 30 306 3.2 6.4 0.00 0.00 0.00 80 1012.3
20260906153255 30 306 4.8 6.4 0.00 0.00 0.00 80 1012.3
20260906153154 30 307 3.2 6.4 0.00 0.00 0.00 80 1012.3
20260906153053 30 307 0.0 6.4 0.00 0.00 0.00 81 1012.3
20260906152953 30 347 1.6 6.4 0.00 0.00 0.00 81 1012.3
20260906152853 30 347 3.2 6.4 0.00 0.00 0.00 82 1012.3
20260906152755 30 347 3.2 6.4 0.00 0.00 0.00 81 1012.3
20260906152655 30 347 4.8 6.4 0.00 0.00 0.00 82 1012.3
20260906152555 30 347 4.8 6.4 0.00 0.00 0.00 83 1012.4
20260906152453 30 347 3.2 6.4 0.00 0.00 0.00 83 1012.3
20260906152356 30 333 3.2 6.4 0.00 0.00 0.00 83 1012.4
20260906152254 30 319 3.2 6.4 0.00 0.00 0.00 83 1012.4
20260906152154 30 312 4.8 6.4 0.00 0.00 0.00 83 1012.3
20260906152053 30 324 4.8 6.4 0.00 0.00 0.00 83 1012.3
20260906151953 30 336 4.8 6.4 0.00 0.00 0.00 83 1012.3
20260906151854 30 334 3.2 6.4 0.00 0.00 0.00 83 1012.3
20260906151754 30 7 0.0 4.8 0.00 0.00 0.00 83 1012.3
20260906151655 30 13 0.0 6.4 0.00 0.00 0.00 83 1012.3
20260906151554 30 13 0.0 8.0 0.00 0.00 0.00 82 1012.3
20260906151454 30 13 0.0 8.0 0.00 0.00 0.00 82 1012.3
20260906151354 30 13 0.0 8.0 0.00 0.00 0.00 82 1012.2
20260906151253 30 13 1.6 8.0 0.00 0.00 0.00 82 1012.2
20260906151154 30 14 1.6 8.0 0.00 0.00 0.00 82 1012.3
20260906151053 30 13 1.6 8.0 0.00 0.00 0.00 82 1012.3
20260906150954 30 14 1.6 8.0 0.00 0.00 0.00 81 1012.2
20260906150853 30 14 3.2 8.0 0.00 0.00 0.00 81 1012.3
20260906150755 30 14 6.4 8.0 0.00 0.00 0.00 81 1012.3
20260906150654 31 14 6.4 8.0 0.00 0.00 0.00 80 1012.2
20260906150554 31 14 6.4 8.0 0.00 0.00 0.00 80 1012.1
20260906150455 31 11 6.4 8.0 0.00 0.00 0.00 80 1012.2
20260906150354 31 8 4.8 8.0 0.00 0.00 0.00 81 1012.2
20260906150253 31 345 3.2 6.4 0.00 0.00 0.00 81 1012.2
20260906150155 31 35 4.8 6.4 0.00 0.00 0.00 82 1012.2
20260906150053 30 82 4.8 6.4 0.00 0.00 0.00 82 1012.1
20260906145955 30 85 3.2 6.4 0.00 0.00 0.00 82 1012.2
20260906145855 30 83 4.8 8.0 0.00 0.00 0.00 81 1012.2
20260906145754 30 83 4.8 8.0 0.00 0.00 0.00 81 1012.1
20260906145653 30 92 3.2 8.0 0.00 0.00 0.00 82 1012.2
20260906145556 30 99 3.2 8.0 0.00 0.00 0.00 82 1012.1
20260906145453 30 151 3.2 8.0 0.00 0.00 0.00 82 1012.1
20260906145353 30 164 3.2 8.0 0.00 0.00 0.00 83 1012.1
20260906145255 30 134 1.6 8.0 0.00 0.00 0.00 84 1012.2
20260906145154 30 103 3.2 8.0 0.00 0.00 0.00 83 1012.2
20260906145055 30 103 4.8 8.0 0.00 0.00 0.00 83 1012.2
20260906144953 30 104 4.8 8.0 0.00 0.00 0.00 83 1012.2
20260906144854 30 82 3.2 8.0 0.00 0.00 0.00 83 1012.1
20260906144753 30 56 3.2 8.0 0.00 0.00 0.00 83 1012.2
20260906144654 30 56 4.8 8.0 0.00 0.00 0.00 84 1012.2
20260906144555 30 82 4.8 8.0 0.00 0.00 0.00 84 1012.2
20260906144453 30 76 3.2 8.0 0.00 0.00 0.00 84 1012.1
20260906144354 30 76 3.2 8.0 0.00 0.00 0.00 84 1012.1
20260906144255 30 76 4.8 8.0 0.00 0.00 0.00 84 1012.2
20260906144153 30 85 4.8 8.0 0.00 0.00 0.00 84 1012.2
20260906144052 30 87 4.8 8.0 0.00 0.00 0.00 84 1012.2
20260906143953 30 75 6.4 8.0 0.00 0.00 0.00 84 1012.2
20260906143855 30 73 6.4 8.0 0.00 0.00 0.00 84 1012.3
20260906143754 30 44 4.8 8.0 0.00 0.00 0.00 84 1012.3
20260906143653 30 32 3.2 8.0 0.00 0.00 0.00 85 1012.3
20260906143553 29 32 3.2 8.0 0.00 0.00 0.00 85 1012.3
20260906143454 29 31 4.8 8.0 0.00 0.00 0.00 85 1012.3
20260906143353 29 65 4.8 8.0 0.00 0.00 0.00 85 1012.3
20260906143252 29 65 6.4 8.0 0.00 0.00 0.00 85 1012.3
20260906143153 29 83 6.4 8.0 0.00 0.00 0.00 85 1012.3
20260906143053 29 83 6.4 8.0 0.00 0.00 0.00 85 1012.3
20260906142953 29 79 6.4 8.0 0.00 0.00 0.00 85 1012.2
20260906142852 29 85 8.0 8.0 0.00 0.00 0.00 85 1012.3
20260906142753 29 63 6.4 8.0 0.00 0.00 0.00 85 1012.2
20260906142653 29 89 4.8 8.0 0.00 0.00 0.00 85 1012.2
20260906142552 29 83 4.8 8.0 0.00 0.00 0.00 85 1012.2
20260906142454 29 82 4.8 8.0 0.00 0.00 0.00 85 1012.3
20260906142352 29 73 6.4 8.0 0.00 0.00 0.00 85 1012.3
20260906142252 29 72 6.4 8.0 0.00 0.00 0.00 85 1012.2
20260906142153 29 75 6.4 8.0 0.00 0.00 0.00 85 1012.3
20260906142053 29 71 6.4 8.0 0.00 0.00 0.00 85 1012.2
20260906141952 29 61 6.4 8.0 0.00 0.00 0.00 86 1012.2
20260906141852 29 80 4.8 8.0 0.00 0.00 0.00 86 1012.3
20260906141753 29 63 4.8 8.0 0.00 0.00 0.00 86 1012.3
20260906141653 29 63 4.8 8.0 0.00 0.00 0.00 86 1012.2
20260906141553 29 39 4.8 8.0 0.00 0.00 0.00 86 1012.3
20260906141453 29 39 4.8 8.0 0.00 0.00 0.00 86 1012.3
20260906141353 29 35 4.8 8.0 0.00 0.00 0.00 87 1012.3
20260906141252 29 25 3.2 8.0 0.00 0.00 0.00 87 1012.3
20260906141151 29 38 1.6 8.0 0.00 0.00 0.00 87 1012.3
20260906141051 28 38 1.6 8.0 0.00 0.00 0.00 88 1012.3
20260906140954 28 48 0.0 8.0 0.00 0.00 0.00 88 1012.2
20260906140852 28 48 1.6 8.0 0.00 0.00 0.00 88 1012.2
20260906140754 28 48 4.8 8.0 0.00 0.00 0.00 88 1012.3
20260906140653 28 48 6.4 8.0 0.00 0.00 0.00 88 1012.3
20260906140553 28 42 6.4 8.0 0.00 0.00 0.00 88 1012.2
20260906140452 28 34 6.4 8.0 0.00 0.00 0.00 88 1012.3
20260906140353 28 34 4.8 8.0 0.00 0.00 0.00 88 1012.2
20260906140251 28 30 4.8 6.4 0.00 0.00 0.00 88 1012.2
20260906140151 28 28 4.8 6.4 0.00 0.00 0.00 89 1012.2
20260906140053 28 28 3.2 6.4 0.00 0.00 0.00 89 1012.1
20260906135952 28 28 1.6 4.8 0.00 0.00 0.00 89 1012.2
20260906135853 28 28 1.6 4.8 0.00 0.00 0.00 90 1012.2
20260906135754 28 28 3.2 4.8 0.00 0.00 0.00 90 1012.2
20260906135652 28 28 1.6 4.8 0.00 0.00 0.00 90 1012.2
20260906135552 28 56 0.0 4.8 0.00 0.00 0.00 90 1012.2
20260906135451 28 56 1.6 4.8 0.00 0.00 0.00 91 1012.2
20260906135352 28 56 1.6 4.8 0.00 0.00 0.00 91 1012.2
20260906135252 28 56 0.0 4.8 0.00 0.00 0.00 91 1012.2
20260906135151 27 56 0.0 4.8 0.00 0.00 0.00 91 1012.1
20260906135052 27 56 0.0 4.8 0.00 0.00 0.00 92 1012.1
20260906134953 27 56 0.0 4.8 0.00 0.00 0.00 92 1012.1
20260906134852 27 56 0.0 4.8 0.00 0.00 0.00 92 1012.2
20260906134751 27 56 1.6 6.4 0.00 0.00 0.00 92 1012.1
20260906134654 27 56 1.6 6.4 0.00 0.00 0.00 93 1012.2
20260906134552 27 56 1.6 6.4 0.00 0.00 0.00 93 1012.2
20260906134451 27 56 3.2 6.4 0.00 0.00 0.00 93 1012.1
20260906134351 27 56 3.2 6.4 0.00 0.00 0.00 93 1012.2
20260906134251 27 56 1.6 6.4 0.00 0.00 0.00 93 1012.2
20260906134152 27 56 1.6 6.4 0.00 0.00 0.00 93 1012.2
20260906134052 27 56 3.2 6.4 0.00 0.00 0.00 94 1012.2
20260906133953 27 56 4.8 6.4 0.00 0.00 0.00 94 1012.2
20260906133852 27 56 4.8 6.4 0.00 0.00 0.00 94 1012.2
20260906133751 27 55 4.8 6.4 0.00 0.00 0.00 94 1012.2
20260906133651 27 55 4.8 6.4 0.00 0.00 0.00 94 1012.2
20260906133553 27 55 4.8 6.4 0.00 0.00 0.00 94 1012.1
20260906133452 26 47 4.8 6.4 0.00 0.00 0.00 95 1012.1
20260906133351 26 45 4.8 6.4 0.00 0.00 0.00 95 1012.1
20260906133251 26 45 4.8 6.4 0.00 0.00 0.00 95 1012.1
20260906133151 26 45 4.8 6.4 0.00 0.00 0.00 95 1012.1
20260906133052 26 45 3.2 6.4 0.00 0.00 0.00 95 1012.1
20260906132952 26 45 1.6 6.4 0.00 0.00 0.00 95 1012.0
20260906132851 26 45 3.2 4.8 0.00 0.00 0.00 95 1012.1
20260906132751 26 45 1.6 4.8 0.00 0.00 0.00 95 1012.0
20260906132651 26 45 0.0 4.8 0.00 0.00 0.00 96 1011.9
20260906132553 26 45 1.6 4.8 0.00 0.00 0.00 96 1011.9
20260906132451 26 45 1.6 6.4 0.00 0.00 0.00 96 1012.0
20260906132352 26 45 1.6 6.4 0.00 0.00 0.00 96 1011.9
20260906132252 26 45 1.6 6.4 0.00 0.00 0.00 96 1011.9
20260906132154 26 45 3.2 6.4 0.00 0.00 0.00 96 1011.8
20260906132051 26 45 3.2 6.4 0.00 0.00 0.00 96 1011.9
20260906131951 26 45 3.2 6.4 0.00 0.00 0.00 96 1011.8
20260906131853 26 45 3.2 6.4 0.00 0.00 0.00 96 1011.8
20260906131752 26 45 3.2 6.4 0.00 0.00 0.00 96 1011.8
20260906131651 26 45 4.8 6.4 0.00 0.00 0.00 96 1011.8
20260906131551 26 45 4.8 6.4 0.00 0.00 0.00 96 1011.8
20260906131451 26 41 3.2 6.4 0.00 0.00 0.00 96 1011.9
20260906131351 26 72 3.2 6.4 0.00 0.00 0.00 96 1011.8
20260906131251 26 72 4.8 6.4 0.00 0.00 0.00 96 1011.8
20260906131152 26 73 4.8 6.4 0.00 0.00 0.00 96 1011.8
20260906131051 26 73 4.8 6.4 0.00 0.00 0.00 96 1011.8
20260906130951 26 73 4.8 6.4 0.00 0.00 0.00 96 1011.8
20260906130851 26 93 4.8 6.4 0.00 0.00 0.00 96 1011.8
20260906130750 26 93 3.2 6.4 0.00 0.00 0.00 96 1011.8
20260906130652 26 38 3.2 6.4 0.00 0.00 0.00 97 1011.8
20260906130551 26 38 4.8 6.4 0.00 0.00 0.00 97 1011.8
20260906130453 26 38 3.2 6.4 0.00 0.00 0.00 97 1011.7
20260906130351 26 38 4.8 6.4 0.00 0.00 0.00 97 1011.8
20260906130250 26 39 3.2 6.4 0.00 0.00 0.00 97 1011.8
20260906130150 26 41 3.2 8.0 0.00 0.00 0.00 97 1011.7
20260906130052 26 42 3.2 8.0 0.00 0.00 0.00 97 1011.8
20260906125950 26 42 3.2 8.0 0.00 0.00 0.00 97 1011.8
20260906125850 25 42 3.2 8.0 0.00 0.00 0.00 97 1011.8
20260906125752 25 44 3.2 8.0 0.00 0.00 0.00 97 1011.7
20260906125650 25 44 3.2 8.0 0.00 0.00 0.00 97 1011.7
20260906125551 25 62 1.6 8.0 0.00 0.00 0.00 97 1011.7
20260906125452 25 62 3.2 8.0 0.00 0.00 0.00 97 1011.7
20260906125351 25 63 4.8 8.0 0.00 0.00 0.00 97 1011.6
20260906125250 25 80 4.8 8.0 0.00 0.00 0.00 97 1011.6
20260906125150 25 49 3.2 6.4 0.00 0.00 0.00 97 1011.5
20260906125052 25 44 3.2 6.4 0.00 0.00 0.00 97 1011.5
20260906124951 25 44 3.2 6.4 0.00 0.00 0.00 97 1011.6
20260906124850 25 44 3.2 8.0 0.00 0.00 0.00 97 1011.6
20260906124753 25 44 4.8 8.0 0.00 0.00 0.00 97 1011.5
20260906124650 25 45 3.2 9.7 0.00 0.00 0.00 97 1011.5
20260906124551 25 69 3.2 9.7 0.00 0.00 0.00 97 1011.5
20260906124451 25 69 1.6 9.7 0.00 0.00 0.00 97 1011.5
20260906124352 25 69 1.6 9.7 0.00 0.00 0.00 97 1011.5
20260906124250 25 69 3.2 9.7 0.00 0.00 0.00 97 1011.5
20260906124150 25 69 3.2 9.7 0.00 0.00 0.00 97 1011.5
20260906124051 25 31 4.8 9.7 0.00 0.00 0.00 97 1011.4
20260906123950 25 31 6.4 9.7 0.00 0.00 0.00 97 1011.4
20260906123851 25 28 6.4 9.7 0.00 0.00 0.00 97 1011.4
20260906123752 25 28 4.8 9.7 0.00 0.00 0.00 97 1011.4
20260906123652 25 23 4.8 6.4 0.00 0.00 0.00 97 1011.4
20260906123549 25 31 4.8 6.4 0.00 0.00 0.00 97 1011.4
20260906123449 25 27 3.2 6.4 0.00 0.00 0.00 97 1011.5
20260906123352 25 27 3.2 8.0 0.00 0.00 0.00 97 1011.4
20260906123250 25 27 3.2 8.0 0.00 0.00 0.00 97 1011.4
20260906123149 25 25 3.2 8.0 0.00 0.00 0.00 97 1011.5
20260906123050 25 25 3.2 8.0 0.00 0.00 0.00 97 1011.4
20260906122951 25 25 3.2 8.0 0.00 0.00 0.00 97 1011.4
20260906122849 25 24 3.2 8.0 0.00 0.00 0.00 97 1011.4
20260906122749 25 24 3.2 8.0 0.00 0.00 0.00 97 1011.4
20260906122651 25 23 3.2 8.0 0.00 0.00 0.00 97 1011.3
20260906122549 25 31 4.8 8.0 0.00 0.00 0.00 97 1011.3
20260906122449 25 17 6.4 8.0 0.00 0.00 0.00 97 1011.2
20260906122350 25 16 4.8 8.0 0.00 0.00 0.00 97 1011.1
20260906122250 25 14 4.8 8.0 0.00 0.00 0.00 97 1011.1
20260906122149 25 13 4.8 8.0 0.00 0.00 0.00 97 1011.1
20260906122049 25 14 4.8 8.0 0.00 0.00 0.00 97 1011.1
20260906121951 25 13 3.2 8.0 0.00 0.00 0.00 97 1011.1
20260906121850 25 13 3.2 6.4 0.00 0.00 0.00 96 1011.1
20260906121749 25 13 3.2 6.4 0.00 0.00 0.00 97 1011.0
20260906121651 25 13 1.6 6.4 0.00 0.00 0.00 96 1011.1
20260906121550 25 13 3.2 6.4 0.00 0.00 0.00 96 1011.0
20260906121450 25 13 3.2 6.4 0.00 0.00 0.00 96 1011.1
20260906121350 25 11 3.2 6.4 0.00 0.00 0.00 96 1011.1
20260906121250 25 13 3.2 6.4 0.00 0.00 0.00 96 1011.1
20260906121149 25 11 3.2 6.4 0.00 0.00 0.00 96 1011.0
20260906121049 25 11 3.2 6.4 0.00 0.00 0.00 96 1011.0
20260906120950 25 11 4.8 6.4 0.00 0.00 0.00 96 1011.1
20260906120851 25 11 3.2 6.4 0.00 0.00 0.00 96 1011.1
20260906120750 25 11 3.2 6.4 0.00 0.00 0.00 96 1011.1
20260906120649 25 11 3.2 6.4 0.00 0.00 0.00 96 1011.1
20260906120551 25 11 3.2 6.4 0.00 0.00 0.00 96 1011.1
20260906120449 25 11 1.6 4.8 0.00 0.00 0.00 96 1011.0
20260906120349 25 11 0.0 0.0 0.00 0.00 0.00 96 1011.0
20260906120250 25 11 0.0 0.0 0.00 0.00 0.00 96 1011.0
20260906120150 25 13 0.0 0.0 0.00 0.00 0.00 96 1011.0
20260906120049 25 11 0.0 0.0 0.00 0.00 0.00 96 1011.0
20260906115950 25 11 0.0 0.0 0.00 0.00 0.00 96 1011.0
20260906115850 25 14 0.0 0.0 0.00 0.00 0.00 96 1011.1
20260906115749 25 13 0.0 0.0 0.00 0.00 0.00 96 1011.0
20260906115649 25 13 0.0 0.0 0.00 0.00 0.00 96 1011.0
20260906115549 25 13 0.0 0.0 0.00 0.00 0.00 96 1011.0
20260906115449 25 13 0.0 0.0 0.00 0.00 0.00 96 1011.0
20260906115346 25 13 0.0 0.0 0.00 0.00 0.00 96 1011.1
20260906115247 25 14 0.0 0.0 0.00 0.00 0.00 96 1011.0
20260906115143 25 13 0.0 0.0 0.00 0.00 0.00 96 1011.0
20260906115043 25 13 0.0 0.0 0.00 0.00 0.00 96 1011.0
20260906114932 25 13 0.0 0.0 0.00 0.00 0.00 96 1011.0
20260906114831 25 13 0.0 0.0 0.00 0.00 0.00 96 1011.0
20260906114731 25 13 0.0 0.0 0.00 0.00 0.00 96 1011.0
20260906114632 25 13 0.0 0.0 0.00 0.00 0.00 96 1011.0
20260906114532 25 13 0.0 0.0 0.00 0.00 0.00 96 1011.0
20260906114431 25 13 0.0 0.0 0.00 0.00 0.00 96 1010.9
20260906114332 25 13 0.0 0.0 0.00 0.00 0.00 96 1010.9
20260906114232 25 13 0.0 0.0 0.00 0.00 0.00 96 1010.9
20260906114132 25 13 0.0 0.0 0.00 0.00 0.00 96 1010.8
20260906114033 25 13 0.0 0.0 0.00 0.00 0.00 96 1010.9
20260906113932 25 14 0.0 0.0 0.00 0.00 0.00 96 1010.8
20260906113832 25 13 0.0 0.0 0.00 0.00 0.00 96 1010.8
20260906113731 25 13 0.0 0.0 0.00 0.00 0.00 96 1010.8
20260906113631 25 13 0.0 0.0 0.00 0.00 0.00 96 1010.8
20260906113532 25 13 0.0 0.0 0.00 0.00 0.00 96 1010.8
20260906113431 25 13 0.0 0.0 0.00 0.00 0.00 96 1010.8
20260906113331 25 13 0.0 0.0 0.00 0.00 0.00 96 1010.9
20260906113232 25 13 0.0 0.0 0.00 0.00 0.00 96 1010.9
20260906113131 25 13 0.0 0.0 0.00 0.00 0.00 96 1010.8
20260906113031 25 13 0.0 0.0 0.00 0.00 0.00 96 1010.8
20260906112932 25 13 0.0 0.0 0.00 0.00 0.00 96 1010.8
20260906112830 25 13 0.0 0.0 0.00 0.00 0.00 96 1010.8
20260906112727 25 13 0.0 0.0 0.00 0.00 0.00 96 1010.8
20260906112627 25 13 0.0 0.0 0.00 0.00 0.00 96 1010.8
20260906112526 25 14 0.0 0.0 0.00 0.00 0.00 96 1010.8
20260906112422 25 13 0.0 0.0 0.00 0.00 0.00 96 1010.8
20260906112324 25 13 0.0 0.0 0.00 0.00 0.00 96 1010.8
20260906112222 25 14 0.0 0.0 0.00 0.00 0.00 96 1010.7
20260906112120 25 13 0.0 0.0 0.00 0.00 0.00 96 1010.8
20260906112018 25 13 0.0 0.0 0.00 0.00 0.00 96 1010.8
20260906111917 25 14 0.0 0.0 0.00 0.00 0.00 96 1010.7
20260906111814 25 13 0.0 0.0 0.00 0.00 0.00 96 1010.7
20260906111713 25 14 0.0 0.0 0.00 0.00 0.00 96 1010.6
20260906111612 25 14 0.0 0.0 0.00 0.00 0.00 96 1010.6
20260906111510 25 14 0.0 0.0 0.00 0.00 0.00 96 1010.7
20260906111406 25 13 0.0 0.0 0.00 0.00 0.00 96 1010.8
20260906111303 25 13 0.0 0.0 0.00 0.00 0.00 96 1010.6
20260906111204 25 13 0.0 0.0 0.00 0.00 0.00 96 1010.7
20260906111103 25 13 0.0 0.0 0.00 0.00 0.00 96 1010.7
20260906111003 25 13 0.0 0.0 0.00 0.00 0.00 96 1010.7
20260906110902 25 13 0.0 0.0 0.00 0.00 0.00 96 1010.7
20260906110802 25 13 0.0 0.0 0.00 0.00 0.00 96 1010.7
20260906110702 25 13 0.0 0.0 0.00 0.00 0.00 96 1010.8
20260906110603 25 13 0.0 0.0 0.00 0.00 0.00 96 1010.7
20260906110502 25 13 0.0 0.0 0.00 0.00 0.00 96 1010.7
20260906110402 25 13 0.0 0.0 0.00 0.00 0.00 96 1010.7
20260906110303 25 13 0.0 0.0 0.00 0.00 0.00 96 1010.7
20260906110202 25 13 0.0 0.0 0.00 0.00 0.00 96 1010.8
20260906110003 25 13 0.0 0.0 0.00 0.00 0.00 96 1010.7
20260906105903 25 13 0.0 0.0 0.00 0.00 0.00 96 1010.7
20260906105804 25 13 0.0 0.0 0.00 0.00 0.00 96 1010.6
20260906105703 25 13 0.0 0.0 0.00 0.00 0.00 96 1010.6
20260906105603 25 13 0.0 0.0 0.00 0.00 0.00 96 1010.6
20260906105502 25 13 0.0 0.0 0.00 0.00 0.00 96 1010.6
20260906105402 25 13 0.0 0.0 0.00 0.00 0.00 96 1010.7
20260906105306 25 13 0.0 0.0 0.00 0.00 0.00 96 1010.6
20260906105203 25 13 0.0 0.0 0.00 0.00 0.00 96 1010.6
20260906105103 25 13 0.0 0.0 0.00 0.00 0.00 96 1010.6
20260906105003 25 13 0.0 0.0 0.00 0.00 0.00 96 1010.5
20260906104903 25 13 0.0 0.0 0.00 0.00 0.00 96 1010.5
20260906104802 25 13 0.0 0.0 0.00 0.00 0.00 96 1010.6
20260906104703 25 13 0.0 3.2 0.00 0.00 0.00 96 1010.6
20260906104603 25 13 0.0 3.2 0.00 0.00 0.00 96 1010.5
20260906104502 25 13 0.0 3.2 0.00 0.00 0.00 96 1010.5
20260906104402 25 13 0.0 3.2 0.00 0.00 0.00 96 1010.5
20260906104304 25 13 0.0 3.2 0.00 0.00 0.00 96 1010.5
20260906104202 25 13 0.0 3.2 0.00 0.00 0.00 96 1010.5
20260906104101 25 13 0.0 3.2 0.00 0.00 0.00 96 1010.5
20260906104004 25 13 0.0 3.2 0.00 0.00 0.00 96 1010.5
20260906103902 25 13 0.0 4.8 0.00 0.00 0.00 96 1010.5
20260906103802 25 13 0.0 4.8 0.00 0.00 0.00 96 1010.5
20260906103702 25 13 0.0 4.8 0.00 0.00 0.00 96 1010.5
20260906103603 25 13 0.0 4.8 0.00 0.00 0.00 95 1010.4
20260906103503 25 13 0.0 4.8 0.00 0.00 0.00 96 1010.4
20260906103403 25 13 0.0 4.8 0.00 0.00 0.00 96 1010.4
20260906103304 25 13 1.6 4.8 0.00 0.00 0.00 95 1010.4
20260906103203 25 13 1.6 4.8 0.00 0.00 0.00 95 1010.3
20260906103102 25 13 1.6 4.8 0.00 0.00 0.00 95 1010.3
20260906103002 25 13 3.2 4.8 0.00 0.00 0.00 95 1010.4
20260906102903 25 13 3.2 4.8 0.00 0.00 0.00 95 1010.3
20260906102801 25 13 3.2 4.8 0.00 0.00 0.00 95 1010.3
20260906102702 25 13 3.2 4.8 0.00 0.00 0.00 95 1010.3
20260906102604 25 13 3.2 4.8 0.00 0.00 0.00 95 1010.3
20260906102503 25 13 1.6 4.8 0.00 0.00 0.00 95 1010.3
20260906102402 25 13 0.0 4.8 0.00 0.00 0.00 95 1010.3
20260906102305 25 13 0.0 3.2 0.00 0.00 0.00 95 1010.3
20260906102201 25 13 0.0 3.2 0.00 0.00 0.00 95 1010.4
20260906102102 25 13 0.0 3.2 0.00 0.00 0.00 95 1010.3
20260906102002 25 13 0.0 3.2 0.00 0.00 0.00 95 1010.3
20260906101903 25 13 1.6 3.2 0.00 0.00 0.00 95 1010.3
20260906101803 25 13 1.6 3.2 0.00 0.00 0.00 95 1010.3
20260906101702 25 13 1.6 4.8 0.00 0.00 0.00 95 1010.2
20260906101602 25 13 0.0 4.8 0.00 0.00 0.00 95 1010.3
20260906101504 25 13 1.6 4.8 0.00 0.00 0.00 95 1010.3
20260906101403 25 13 1.6 4.8 0.00 0.00 0.00 95 1010.3
20260906101303 25 13 1.6 4.8 0.00 0.00 0.00 95 1010.3
20260906101203 25 13 1.6 4.8 0.00 0.00 0.00 95 1010.3
20260906101103 25 13 1.6 4.8 0.00 0.00 0.00 95 1010.3
20260906101003 25 13 3.2 4.8 0.00 0.00 0.00 95 1010.2
20260906100903 25 13 3.2 4.8 0.00 0.00 0.00 95 1010.2
20260906100803 25 13 3.2 4.8 0.00 0.00 0.00 95 1010.2
20260906100703 25 13 3.2 3.2 0.00 0.00 0.00 95 1010.3
20260906100603 25 13 3.2 3.2 0.00 0.00 0.00 95 1010.3
20260906100504 25 13 3.2 3.2 0.00 0.00 0.00 95 1010.3
20260906100402 25 13 3.2 3.2 0.00 0.00 0.00 95 1010.3
20260906100302 25 13 1.6 3.2 0.00 0.00 0.00 95 1010.3
20260906100204 25 13 1.6 3.2 0.00 0.00 0.00 95 1010.3
20260906100003 25 13 0.0 3.2 0.00 0.00 0.00 95 1010.3
20260906095902 25 13 1.6 3.2 0.00 0.00 0.00 95 1010.4
20260906095803 25 13 0.0 3.2 0.00 0.00 0.00 95 1010.3
20260906095702 25 14 0.0 4.8 0.00 0.00 0.00 95 1010.3
20260906095602 25 13 0.0 4.8 0.00 0.00 0.00 95 1010.3
20260906095504 25 13 1.6 4.8 0.00 0.00 0.00 95 1010.3
20260906095403 25 13 0.0 4.8 0.00 0.00 0.00 95 1010.3
20260906095306 25 13 0.0 4.8 0.00 0.00 0.00 95 1010.2
20260906095204 25 13 0.0 4.8 0.00 0.00 0.00 95 1010.2
20260906095103 25 13 0.0 4.8 0.00 0.00 0.00 95 1010.2
20260906095003 25 13 1.6 4.8 0.00 0.00 0.00 95 1010.3
20260906094902 25 13 3.2 4.8 0.00 0.00 0.00 95 1010.2
20260906094803 25 13 3.2 4.8 0.00 0.00 0.00 95 1010.2
20260906094703 25 13 3.2 4.8 0.00 0.00 0.00 95 1010.3
20260906094604 25 13 3.2 6.4 0.00 0.00 0.00 95 1010.3
20260906094503 25 13 3.2 6.4 0.00 0.00 0.00 95 1010.3
20260906094403 25 13 1.6 6.4 0.00 0.00 0.00 95 1010.3
20260906094302 25 13 1.6 6.4 0.00 0.00 0.00 95 1010.3
20260906094202 25 13 3.2 6.4 0.00 0.00 0.00 95 1010.3
20260906094104 25 13 3.2 6.4 0.00 0.00 0.00 95 1010.4
20260906094003 25 13 1.6 6.4 0.00 0.00 0.00 95 1010.2
20260906093903 25 13 1.6 6.4 0.00 0.00 0.00 95 1010.2
20260906093804 25 14 3.2 6.4 0.00 0.00 0.00 95 1010.3
20260906093703 25 13 4.8 6.4 0.00 0.00 0.00 95 1010.2
20260906093602 25 13 3.2 6.4 0.00 0.00 0.00 95 1010.2
20260906093502 25 13 4.8 6.4 0.00 0.00 0.00 95 1010.3
20260906093403 25 13 4.8 6.4 0.00 0.00 0.00 95 1010.3
20260906093303 25 13 3.2 4.8 0.00 0.00 0.00 95 1010.3
20260906093202 25 18 3.2 6.4 0.00 0.00 0.00 95 1010.2
20260906093103 25 18 4.8 6.4 0.00 0.00 0.00 95 1010.3
20260906093002 26 18 3.2 6.4 0.00 0.00 0.00 95 1010.3
20260906092902 26 18 3.2 6.4 0.00 0.00 0.00 95 1010.3
20260906092804 26 18 3.2 6.4 0.00 0.00 0.00 95 1010.3
20260906092704 26 18 3.2 6.4 0.00 0.00 0.00 95 1010.3
20260906092602 26 18 3.2 6.4 0.00 0.00 0.00 94 1010.3
20260906092502 26 18 3.2 6.4 0.00 0.00 0.00 94 1010.3
20260906092403 26 18 3.2 6.4 0.00 0.00 0.00 94 1010.1
20260906092305 26 18 3.2 6.4 0.00 0.00 0.00 94 1010.1
20260906092202 26 18 1.6 6.4 0.00 0.00 0.00 94 1010.1
20260906092104 26 18 3.2 6.4 0.00 0.00 0.00 94 1010.1
20260906092002 26 18 3.2 6.4 0.00 0.00 0.00 94 1010.1
20260906091903 26 18 3.2 6.4 0.00 0.00 0.00 94 1010.1
20260906091802 26 18 1.6 6.4 0.00 0.00 0.00 94 1010.1
20260906091703 26 18 3.2 6.4 0.00 0.00 0.00 94 1010.2
20260906091602 26 20 3.2 6.4 0.00 0.00 0.00 94 1010.2
20260906091502 26 20 4.8 6.4 0.00 0.00 0.00 94 1010.1
20260906091403 26 18 4.8 6.4 0.00 0.00 0.00 94 1010.1
20260906091303 26 18 4.8 6.4 0.00 0.00 0.00 94 1010.1
20260906091202 26 14 4.8 6.4 0.00 0.00 0.00 94 1010.1
20260906091102 26 13 4.8 6.4 0.00 0.00 0.00 94 1010.1
20260906091003 26 13 4.8 6.4 0.00 0.00 0.00 94 1010.2
20260906090903 26 13 4.8 6.4 0.00 0.00 0.00 94 1010.1
20260906090802 26 13 4.8 6.4 0.00 0.00 0.00 94 1010.1
20260906090704 26 13 3.2 4.8 0.00 0.00 0.00 94 1010.1
20260906090603 26 13 1.6 4.8 0.00 0.00 0.00 94 1010.1
20260906090503 26 13 0.0 3.2 0.00 0.00 0.00 94 1010.1
20260906090404 26 13 1.6 3.2 0.00 0.00 0.00 94 1010.0
20260906090303 26 13 1.6 3.2 0.00 0.00 0.00 94 1010.1
20260906090202 26 13 1.6 4.8 0.00 0.00 0.00 94 1010.1
20260906090004 26 13 1.6 4.8 0.00 0.00 0.00 94 1010.1
20260906085903 26 13 1.6 4.8 0.00 0.00 0.00 94 1010.1
20260906085802 26 13 1.6 4.8 0.00 0.00 0.00 94 1010.1
20260906085704 26 13 3.2 4.8 0.00 0.00 0.00 94 1010.1
20260906085603 26 13 3.2 4.8 0.00 0.00 0.00 94 1010.1
20260906085503 26 13 1.6 4.8 0.00 0.00 0.00 94 1010.1
20260906085402 26 13 3.2 4.8 0.00 0.00 0.00 94 1010.0
20260906085306 26 13 3.2 4.8 0.00 0.00 0.00 94 1010.0
20260906085203 26 13 3.2 4.8 0.00 0.00 0.00 94 1010.1
20260906085102 26 13 3.2 4.8 0.00 0.00 0.00 94 1010.0
20260906085004 26 13 3.2 4.8 0.00 0.00 0.00 94 1010.1
20260906084902 26 13 3.2 4.8 0.00 0.00 0.00 94 1010.1
20260906084804 26 13 3.2 4.8 0.00 0.00 0.00 94 1010.0
20260906084703 26 13 3.2 4.8 0.00 0.00 0.00 94 1010.0
20260906084602 26 13 3.2 4.8 0.00 0.00 0.00 94 1010.0
20260906084505 26 13 1.6 4.8 0.00 0.00 0.00 94 1010.0
20260906084402 26 13 1.6 4.8 0.00 0.00 0.00 94 1010.0
20260906084303 26 13 0.0 0.0 0.00 0.00 0.00 94 1009.9
20260906084202 26 13 0.0 0.0 0.00 0.00 0.00 94 1009.9
20260906084102 26 13 0.0 0.0 0.00 0.00 0.00 94 1009.9
20260906084005 26 13 0.0 0.0 0.00 0.00 0.00 94 1009.9
20260906083903 26 13 0.0 0.0 0.00 0.00 0.00 94 1009.9
20260906083802 26 13 0.0 0.0 0.00 0.00 0.00 94 1009.9
20260906083703 26 13 0.0 0.0 0.00 0.00 0.00 94 1009.9
20260906083602 26 13 0.0 0.0 0.00 0.00 0.00 94 1009.9
20260906083502 26 13 0.0 1.6 0.00 0.00 0.00 94 1009.9
20260906083402 26 13 0.0 3.2 0.00 0.00 0.00 94 1009.9
20260906083303 26 13 0.0 3.2 0.00 0.00 0.00 94 1009.9
20260906083202 26 13 0.0 3.2 0.00 0.00 0.00 94 1010.0
20260906083102 26 13 0.0 3.2 0.00 0.00 0.00 94 1010.1
20260906083004 26 13 0.0 3.2 0.00 0.00 0.00 94 1010.0
20260906082903 26 13 0.0 3.2 0.00 0.00 0.00 94 1010.0
20260906082803 26 13 0.0 3.2 0.00 0.00 0.00 94 1010.0
20260906082702 26 13 0.0 4.8 0.00 0.00 0.00 94 1010.0
20260906082603 26 13 1.6 4.8 0.00 0.00 0.00 94 1010.0
20260906082502 26 13 1.6 4.8 0.00 0.00 0.00 94 1010.0
20260906082403 26 13 0.0 4.8 0.00 0.00 0.00 94 1010.0
20260906082305 26 13 0.0 6.4 0.00 0.00 0.00 94 1010.1
20260906082203 26 13 0.0 6.4 0.00 0.00 0.00 94 1010.1
20260906082102 26 13 0.0 6.4 0.00 0.00 0.00 94 1010.1
20260906082003 26 13 1.6 6.4 0.00 0.00 0.00 94 1010.1
20260906081904 26 13 3.2 6.4 0.00 0.00 0.00 93 1010.2
20260906081801 26 13 3.2 6.4 0.00 0.00 0.00 93 1010.2
20260906081703 26 13 3.2 6.4 0.00 0.00 0.00 93 1010.1
20260906081603 26 13 3.2 6.4 0.00 0.00 0.00 93 1010.2
20260906081503 26 13 4.8 6.4 0.00 0.00 0.00 93 1010.2
20260906081403 26 13 4.8 6.4 0.00 0.00 0.00 93 1010.2
20260906081301 26 13 4.8 6.4 0.00 0.00 0.00 93 1010.3
20260906081202 26 13 4.8 6.4 0.00 0.00 0.00 93 1010.2
20260906081102 26 13 4.8 6.4 0.00 0.00 0.00 93 1010.2
20260906081005 26 13 4.8 6.4 0.00 0.00 0.00 93 1010.2
20260906080905 26 13 3.2 6.4 0.00 0.00 0.00 93 1010.2
20260906080802 26 13 3.2 6.4 0.00 0.00 0.00 93 1010.2
20260906080703 26 13 3.2 6.4 0.00 0.00 0.00 93 1010.2
20260906080604 26 13 3.2 6.4 0.00 0.00 0.00 93 1010.2
20260906080503 26 13 3.2 4.8 0.00 0.00 0.00 93 1010.2
20260906080403 26 13 3.2 4.8 0.00 0.00 0.00 93 1010.2
20260906080301 26 13 3.2 4.8 0.00 0.00 0.00 93 1010.2
20260906080204 26 13 3.2 4.8 0.00 0.00 0.00 93 1010.2
20260906080003 26 13 3.2 4.8 0.00 0.00 0.00 93 1010.2
20260906075903 26 13 3.2 6.4 0.00 0.00 0.00 93 1010.1
20260906075804 26 13 3.2 6.4 0.00 0.00 0.00 93 1010.1
20260906075702 26 13 3.2 6.4 0.00 0.00 0.00 93 1010.1
20260906075602 26 13 3.2 6.4 0.00 0.00 0.00 93 1010.1
20260906075503 26 13 1.6 6.4 0.00 0.00 0.00 93 1010.2
20260906075402 26 13 3.2 6.4 0.00 0.00 0.00 93 1010.1
20260906075306 26 13 3.2 6.4 0.00 0.00 0.00 93 1010.2
20260906075203 26 13 3.2 8.0 0.00 0.00 0.00 93 1010.2
20260906075102 26 13 3.2 8.0 0.00 0.00 0.00 93 1010.1
20260906075004 26 13 3.2 8.0 0.00 0.00 0.00 93 1010.2
20260906074904 26 13 3.2 8.0 0.00 0.00 0.00 93 1010.2
20260906074803 26 13 4.8 8.0 0.00 0.00 0.00 93 1010.3
20260906074702 26 13 4.8 8.0 0.00 0.00 0.00 93 1010.3
20260906074602 26 13 4.8 8.0 0.00 0.00 0.00 93 1010.3
20260906074503 26 13 4.8 8.0 0.00 0.00 0.00 93 1010.3
20260906074402 26 13 4.8 8.0 0.00 0.00 0.00 93 1010.3
20260906074303 26 14 4.8 8.0 0.00 0.00 0.00 93 1010.2
20260906074204 26 14 4.8 6.4 0.00 0.00 0.00 93 1010.3
20260906074103 26 14 4.8 6.4 0.00 0.00 0.00 93 1010.3
20260906074003 26 17 3.2 4.8 0.00 0.00 0.00 93 1010.4
20260906073902 26 18 3.2 4.8 0.00 0.00 0.00 93 1010.4
20260906073802 26 18 3.2 4.8 0.00 0.00 0.00 93 1010.3
20260906073702 26 18 3.2 4.8 0.00 0.00 0.00 92 1010.4
20260906073602 26 18 3.2 4.8 0.00 0.00 0.00 93 1010.4
20260906073504 26 18 1.6 4.8 0.00 0.00 0.00 93 1010.4
20260906073403 26 21 0.0 3.2 0.00 0.00 0.00 92 1010.4
20260906073302 26 21 0.0 0.0 0.00 0.00 0.00 92 1010.4
20260906073202 26 21 0.0 0.0 0.00 0.00 0.00 92 1010.4
20260906073103 26 21 0.0 0.0 0.00 0.00 0.00 92 1010.4
20260906073004 26 21 0.0 0.0 0.00 0.00 0.00 92 1010.4
20260906072903 26 21 0.0 3.2 0.00 0.00 0.00 92 1010.4
20260906072804 26 21 0.0 3.2 0.00 0.00 0.00 92 1010.4
20260906072702 26 21 0.0 3.2 0.00 0.00 0.00 92 1010.4
20260906072603 26 21 0.0 3.2 0.00 0.00 0.00 92 1010.4
20260906072502 26 21 0.0 3.2 0.00 0.00 0.00 92 1010.4
20260906072403 26 21 0.0 3.2 0.00 0.00 0.00 92 1010.4
20260906072306 26 23 1.6 3.2 0.00 0.00 0.00 92 1010.4
20260906072203 26 23 1.6 3.2 0.00 0.00 0.00 92 1010.3
20260906072103 26 23 1.6 3.2 0.00 0.00 0.00 92 1010.4
20260906071947 26 21 1.6 3.2 0.00 0.00 0.00 92 1010.4
20260906071845 26 21 3.2 3.2 0.00 0.00 0.00 92 1010.4
20260906071744 26 21 1.6 3.2 0.00 0.00 0.00 92 1010.3
20260906071643 26 21 0.0 3.2 0.00 0.00 0.00 92 1010.4
20260906071543 26 48 0.0 0.0 0.00 0.00 0.00 92 1010.4
20260906071444 26 48 0.0 0.0 0.00 0.00 0.00 92 1010.3
20260906071343 26 48 0.0 0.0 0.00 0.00 0.00 92 1010.3
20260906071243 26 48 0.0 0.0 0.00 0.00 0.00 92 1010.4
20260906071142 26 48 0.0 0.0 0.00 0.00 0.00 91 1010.4
20260906071042 26 48 0.0 0.0 0.00 0.00 0.00 91 1010.4
20260906070942 26 48 0.0 0.0 0.00 0.00 0.00 91 1010.3
20260906070843 26 48 0.0 0.0 0.00 0.00 0.00 91 1010.4
20260906070743 26 48 0.0 0.0 0.00 0.00 0.00 91 1010.4
20260906070642 26 48 0.0 0.0 0.00 0.00 0.00 91 1010.3
20260906070542 26 48 0.0 0.0 0.00 0.00 0.00 91 1010.4
20260906070442 26 48 0.0 0.0 0.00 0.00 0.00 91 1010.5
20260906070343 26 48 0.0 0.0 0.00 0.00 0.00 91 1010.5
20260906070244 26 48 0.0 0.0 0.00 0.00 0.00 91 1010.5
20260906070142 26 48 0.0 0.0 0.00 0.00 0.00 91 1010.4
20260906070044 26 48 0.0 0.0 0.00 0.00 0.00 91 1010.5
20260906065943 26 48 0.0 1.6 0.00 0.00 0.00 91 1010.4
20260906065843 26 48 0.0 3.2 0.00 0.00 0.00 91 1010.4
20260906065743 26 48 0.0 3.2 0.00 0.00 0.00 91 1010.4
20260906065642 26 48 0.0 3.2 0.00 0.00 0.00 91 1010.4
20260906065542 26 48 0.0 3.2 0.00 0.00 0.00 91 1010.4
20260906065444 26 48 0.0 3.2 0.00 0.00 0.00 92 1010.4
20260906065344 26 48 0.0 3.2 0.00 0.00 0.00 92 1010.3
20260906065242 26 48 0.0 3.2 0.00 0.00 0.00 91 1010.4
20260906065142 26 48 0.0 3.2 0.00 0.00 0.00 91 1010.4
20260906065043 26 48 1.6 3.2 0.00 0.00 0.00 92 1010.4
20260906064943 26 48 1.6 3.2 0.00 0.00 0.00 91 1010.4
20260906064842 26 47 1.6 3.2 0.00 0.00 0.00 91 1010.4
20260906064741 26 47 1.6 3.2 0.00 0.00 0.00 92 1010.4
20260906064644 26 47 0.0 3.2 0.00 0.00 0.00 92 1010.5
20260906064542 26 45 0.0 0.0 0.00 0.00 0.00 91 1010.5
20260906064442 26 45 0.0 0.0 0.00 0.00 0.00 92 1010.4
20260906064343 26 45 0.0 0.0 0.00 0.00 0.00 92 1010.5
20260906064243 26 45 0.0 0.0 0.00 0.00 0.00 91 1010.4
20260906064143 26 45 0.0 0.0 0.00 0.00 0.00 91 1010.4
20260906064043 26 45 0.0 0.0 0.00 0.00 0.00 91 1010.4
20260906063943 26 45 0.0 0.0 0.00 0.00 0.00 92 1010.4
20260906063841 26 45 0.0 0.0 0.00 0.00 0.00 92 1010.4
20260906063742 26 45 0.0 1.6 0.00 0.00 0.00 92 1010.3
20260906063641 26 45 0.0 3.2 0.00 0.00 0.00 92 1010.3
20260906063542 26 45 0.0 3.2 0.00 0.00 0.00 92 1010.4
20260906063441 26 45 0.0 3.2 0.00 0.00 0.00 92 1010.3
20260906063342 26 45 0.0 3.2 0.00 0.00 0.00 92 1010.4
20260906063243 26 45 0.0 3.2 0.00 0.00 0.00 92 1010.3
20260906063142 26 45 0.0 3.2 0.00 0.00 0.00 92 1010.3
20260906063042 26 45 0.0 3.2 0.00 0.00 0.00 92 1010.2
20260906062942 26 44 0.0 3.2 0.00 0.00 0.00 92 1010.3
20260906062841 26 44 1.6 3.2 0.00 0.00 0.00 92 1010.3
20260906062742 26 44 0.0 3.2 0.00 0.00 0.00 92 1010.2
20260906062641 26 44 0.0 1.6 0.00 0.00 0.00 92 1010.3
20260906062542 26 42 0.0 0.0 0.00 0.00 0.00 92 1010.3
20260906062441 26 44 0.0 0.0 0.00 0.00 0.00 92 1010.3
20260906062342 26 44 0.0 0.0 0.00 0.00 0.00 92 1010.3
20260906062243 26 44 0.0 0.0 0.00 0.00 0.00 92 1010.4
20260906062142 26 44 0.0 0.0 0.00 0.00 0.00 92 1010.4
20260906062042 26 45 0.0 0.0 0.00 0.00 0.00 92 1010.4
20260906061942 26 45 0.0 0.0 0.00 0.00 0.00 92 1010.3
20260906061842 26 45 0.0 0.0 0.00 0.00 0.00 92 1010.4
20260906061741 26 44 0.0 0.0 0.00 0.00 0.00 92 1010.5
20260906061642 26 45 0.0 0.0 0.00 0.00 0.00 91 1010.5
20260906061542 26 45 0.0 0.0 0.00 0.00 0.00 91 1010.4
20260906061441 26 45 0.0 0.0 0.00 0.00 0.00 91 1010.4
20260906061341 26 44 0.0 0.0 0.00 0.00 0.00 91 1010.4
20260906061242 26 45 0.0 0.0 0.00 0.00 0.00 91 1010.4
20260906061141 26 45 0.0 0.0 0.00 0.00 0.00 91 1010.4
20260906061041 26 44 0.0 0.0 0.00 0.00 0.00 91 1010.4
20260906060942 26 45 0.0 0.0 0.00 0.00 0.00 91 1010.4
20260906060842 26 44 0.0 0.0 0.00 0.00 0.00 91 1010.5
20260906060741 26 44 0.0 0.0 0.00 0.00 0.00 91 1010.4
20260906060641 26 44 0.0 0.0 0.00 0.00 0.00 91 1010.5
20260906060542 26 44 0.0 0.0 0.00 0.00 0.00 91 1010.5
20260906060442 26 44 0.0 0.0 0.00 0.00 0.00 91 1010.4
20260906060341 26 45 0.0 0.0 0.00 0.00 0.00 91 1010.5
20260906060240 26 44 0.0 0.0 0.00 0.00 0.00 91 1010.5
20260906060143 26 44 0.0 0.0 0.00 0.00 0.00 91 1010.5
20260906060042 26 44 0.0 0.0 0.00 0.00 0.00 91 1010.5
20260906055941 26 44 0.0 0.0 0.00 0.00 0.00 91 1010.5
20260906055842 26 44 0.0 0.0 0.00 0.00 0.00 91 1010.6
20260906055740 26 44 0.0 0.0 0.00 0.00 0.00 91 1010.5
20260906055643 26 44 0.0 1.6 0.00 0.00 0.00 91 1010.5
20260906055541 26 44 0.0 3.2 0.00 0.00 0.00 91 1010.5
20260906055443 26 44 0.0 3.2 0.00 0.00 0.00 91 1010.6
20260906055341 26 44 0.0 3.2 0.00 0.00 0.00 91 1010.6
20260906055240 26 44 0.0 3.2 0.00 0.00 0.00 91 1010.6
20260906055141 26 44 0.0 3.2 0.00 0.00 0.00 91 1010.6
20260906055041 26 44 0.0 3.2 0.00 0.00 0.00 91 1010.6
20260906054941 26 42 0.0 3.2 0.00 0.00 0.00 91 1010.6
20260906054841 26 42 0.0 3.2 0.00 0.00 0.00 91 1010.5
20260906054741 26 42 0.0 3.2 0.00 0.00 0.00 91 1010.7
20260906054640 26 42 0.0 3.2 0.00 0.00 0.00 91 1010.6
20260906054540 26 42 0.0 3.2 0.00 0.00 0.00 91 1010.5
20260906054440 26 44 0.0 3.2 0.00 0.00 0.00 91 1010.6
20260906054341 26 44 0.0 3.2 0.00 0.00 0.00 91 1010.6
20260906054240 26 44 0.0 3.2 0.00 0.00 0.00 91 1010.5
20260906054140 26 42 0.0 3.2 0.00 0.00 0.00 91 1010.6
20260906054041 26 44 0.0 3.2 0.00 0.00 0.00 91 1010.6
20260906053940 26 44 1.6 3.2 0.00 0.00 0.00 91 1010.6
20260906053840 26 44 1.6 3.2 0.00 0.00 0.00 91 1010.5
20260906053742 26 44 1.6 3.2 0.00 0.00 0.00 91 1010.5
20260906053640 26 44 0.0 3.2 0.00 0.00 0.00 91 1010.6
20260906053540 26 44 0.0 3.2 0.00 0.00 0.00 91 1010.6
20260906053440 26 44 0.0 3.2 0.00 0.00 0.00 91 1010.6
20260906053342 26 44 1.6 3.2 0.00 0.00 0.00 91 1010.5
20260906053241 26 42 0.0 3.2 0.00 0.00 0.00 91 1010.5
20260906053140 26 44 1.6 3.2 0.00 0.00 0.00 91 1010.5
20260906053041 26 44 1.6 3.2 0.00 0.00 0.00 91 1010.5
20260906052940 26 44 0.0 3.2 0.00 0.00 0.00 91 1010.5
20260906052840 26 44 0.0 3.2 0.00 0.00 0.00 91 1010.4
20260906052740 26 44 0.0 3.2 0.00 0.00 0.00 91 1010.5
20260906052641 26 44 0.0 3.2 0.00 0.00 0.00 91 1010.4
20260906052542 26 44 0.0 3.2 0.00 0.00 0.00 91 1010.5
20260906052440 26 44 0.0 3.2 0.00 0.00 0.00 91 1010.5
20260906052341 26 44 0.0 3.2 0.00 0.00 0.00 91 1010.5
20260906052240 26 44 0.0 3.2 0.00 0.00 0.00 91 1010.5
20260906052141 26 44 1.6 3.2 0.00 0.00 0.00 91 1010.5
20260906052041 26 44 1.6 3.2 0.00 0.00 0.00 91 1010.5
20260906051942 26 45 1.6 3.2 0.00 0.00 0.00 91 1010.5
20260906051840 26 44 0.0 3.2 0.00 0.00 0.00 91 1010.4
20260906051740 26 44 1.6 3.2 0.00 0.00 0.00 91 1010.4
20260906051641 26 44 0.0 3.2 0.00 0.00 0.00 91 1010.4
20260906051540 26 45 0.0 3.2 0.00 0.00 0.00 91 1010.4
20260906051440 26 44 1.6 3.2 0.00 0.00 0.00 91 1010.4
20260906051340 26 45 0.0 3.2 0.00 0.00 0.00 91 1010.4
20260906051241 26 44 0.0 3.2 0.00 0.00 0.00 91 1010.4
20260906051140 26 45 0.0 3.2 0.00 0.00 0.00 91 1010.5
20260906051040 26 44 0.0 3.2 0.00 0.00 0.00 91 1010.4
20260906050941 26 44 1.6 3.2 0.00 0.00 0.00 90 1010.5
20260906050840 26 44 1.6 3.2 0.00 0.00 0.00 91 1010.5
20260906050739 26 44 0.0 3.2 0.00 0.00 0.00 90 1010.4
20260906050639 26 45 1.6 3.2 0.00 0.00 0.00 90 1010.4
20260906050542 26 45 1.6 3.2 0.00 0.00 0.00 90 1010.3
20260906050440 26 44 1.6 3.2 0.00 0.00 0.00 90 1010.3
20260906050339 26 44 1.6 3.2 0.00 0.00 0.00 90 1010.4
20260906050241 26 45 0.0 3.2 0.00 0.00 0.00 90 1010.4
20260906050140 26 45 0.0 3.2 0.00 0.00 0.00 90 1010.4
20260906050041 26 45 0.0 3.2 0.00 0.00 0.00 90 1010.4
20260906045939 26 45 0.0 3.2 0.00 0.00 0.00 90 1010.5
20260906045839 26 44 0.0 3.2 0.00 0.00 0.00 90 1010.5
20260906045739 26 45 0.0 3.2 0.00 0.00 0.00 90 1010.5
20260906045639 26 45 0.0 3.2 0.00 0.00 0.00 90 1010.5
20260906045540 26 45 0.0 3.2 0.00 0.00 0.00 90 1010.4
20260906045440 26 45 0.0 3.2 0.00 0.00 0.00 90 1010.5
20260906045341 26 45 0.0 3.2 0.00 0.00 0.00 90 1010.5
20260906045240 26 45 0.0 3.2 0.00 0.00 0.00 90 1010.4
20260906045139 26 47 0.0 3.2 0.00 0.00 0.00 90 1010.4
20260906045039 26 45 0.0 3.2 0.00 0.00 0.00 90 1010.5
20260906044939 26 45 1.6 3.2 0.00 0.00 0.00 90 1010.4
20260906044840 26 45 1.6 3.2 0.00 0.00 0.00 90 1010.4
20260906044739 26 45 1.6 4.8 0.00 0.00 0.00 90 1010.4
20260906044639 26 47 1.6 4.8 0.00 0.00 0.00 90 1010.5
20260906044540 26 45 1.6 4.8 0.00 0.00 0.00 90 1010.5
20260906044440 26 45 1.6 4.8 0.00 0.00 0.00 90 1010.5
20260906044339 26 45 1.6 4.8 0.00 0.00 0.00 90 1010.5
20260906044239 26 45 0.0 4.8 0.00 0.00 0.00 90 1010.5
20260906044139 26 47 0.0 4.8 0.00 0.00 0.00 90 1010.4
20260906044039 26 45 0.0 4.8 0.00 0.00 0.00 90 1010.4
20260906043940 26 45 1.6 4.8 0.00 0.00 0.00 90 1010.4
20260906043840 26 47 1.6 4.8 0.00 0.00 0.00 90 1010.4
20260906043740 26 47 1.6 4.8 0.00 0.00 0.00 90 1010.5
20260906043639 26 41 1.6 4.8 0.00 0.00 0.00 90 1010.5
20260906043540 26 32 1.6 4.8 0.00 0.00 0.00 90 1010.4
20260906043440 26 32 1.6 4.8 0.00 0.00 0.00 90 1010.4
20260906043338 26 32 1.6 4.8 0.00 0.00 0.00 90 1010.5
20260906043239 26 32 3.2 4.8 0.00 0.00 0.00 90 1010.6
20260906043140 26 32 1.6 4.8 0.00 0.00 0.00 90 1010.6
20260906043039 26 32 3.2 4.8 0.00 0.00 0.00 90 1010.6
20260906042939 26 32 3.2 4.8 0.00 0.00 0.00 90 1010.6
20260906042840 26 31 1.6 4.8 0.00 0.00 0.00 90 1010.6
20260906042740 26 31 1.6 4.8 0.00 0.00 0.00 90 1010.7
20260906042638 26 31 3.2 4.8 0.00 0.00 0.00 90 1010.7
20260906042539 26 31 3.2 4.8 0.00 0.00 0.00 90 1010.7
20260906042441 26 31 3.2 4.8 0.00 0.00 0.00 90 1010.7
20260906042339 26 31 1.6 4.8 0.00 0.00 0.00 90 1010.7
20260906042239 26 31 0.0 4.8 0.00 0.00 0.00 90 1010.6
20260906042139 26 31 0.0 6.4 0.00 0.00 0.00 90 1010.6
20260906042039 26 31 0.0 6.4 0.00 0.00 0.00 90 1010.7
20260906041938 26 31 0.0 6.4 0.00 0.00 0.00 90 1010.7
20260906041840 26 31 1.6 8.0 0.00 0.00 0.00 90 1010.6
20260906041739 26 31 3.2 8.0 0.00 0.00 0.00 90 1010.7
20260906041638 26 31 3.2 8.0 0.00 0.00 0.00 90 1010.7
20260906041538 26 31 3.2 8.0 0.00 0.00 0.00 90 1010.6
20260906041438 26 31 3.2 8.0 0.00 0.00 0.00 90 1010.7
20260906041339 26 31 3.2 8.0 0.00 0.00 0.00 90 1010.7
20260906041239 26 31 4.8 8.0 0.00 0.00 0.00 90 1010.7
20260906041138 26 42 4.8 9.7 0.00 0.00 0.00 90 1010.6
20260906041040 26 35 6.4 9.7 0.00 0.00 0.00 90 1010.6
20260906040938 26 35 6.4 9.7 0.00 0.00 0.00 90 1010.6
20260906040840 26 44 4.8 9.7 0.00 0.00 0.00 90 1010.6
20260906040739 26 35 4.8 9.7 0.00 0.00 0.00 90 1010.6
20260906040638 26 38 4.8 9.7 0.00 0.00 0.00 90 1010.5
20260906040539 26 41 4.8 9.7 0.00 0.00 0.00 90 1010.6
20260906040438 26 37 6.4 9.7 0.00 0.00 0.00 90 1010.5
20260906040340 26 38 6.4 9.7 0.00 0.00 0.00 90 1010.6
20260906040238 26 35 6.4 9.7 0.00 0.00 0.00 90 1010.5
20260906040138 26 35 4.8 8.0 0.00 0.00 0.00 90 1010.5
20260906040038 26 41 4.8 8.0 0.00 0.00 0.00 90 1010.5
20260906035939 26 39 3.2 8.0 0.00 0.00 0.00 90 1010.5
20260906035836 26 35 3.2 8.0 0.00 0.00 0.00 90 1010.5
20260906035735 26 35 4.8 8.0 0.00 0.00 0.00 90 1010.5
20260906035634 26 39 6.4 8.0 0.00 0.00 0.00 90 1010.6
20260906035532 26 37 4.8 6.4 0.00 0.00 0.00 90 1010.5
20260906035432 26 39 1.6 6.4 0.00 0.00 0.00 90 1010.6
20260906035331 26 27 0.0 0.0 0.00 0.00 0.00 90 1010.6
20260906035234 26 27 0.0 0.0 0.00 0.00 0.00 90 1010.7
20260906035132 26 27 0.0 0.0 0.00 0.00 0.00 90 1010.7
20260906035031 26 27 0.0 0.0 0.00 0.00 0.00 90 1010.6
20260906034931 26 27 0.0 0.0 0.00 0.00 0.00 90 1010.7
20260906034832 26 27 0.0 0.0 0.00 0.00 0.00 90 1010.6
20260906034731 26 27 0.0 0.0 0.00 0.00 0.00 90 1010.5
20260906034632 26 27 0.0 0.0 0.00 0.00 0.00 90 1010.6
20260906034532 26 27 0.0 0.0 0.00 0.00 0.00 90 1010.6
20260906034432 26 27 0.0 0.0 0.00 0.00 0.00 90 1010.6
20260906034332 26 27 0.0 0.0 0.00 0.00 0.00 90 1010.6
20260906034231 26 27 0.0 0.0 0.00 0.00 0.00 90 1010.6
20260906034132 26 27 0.0 0.0 0.00 0.00 0.00 90 1010.6
20260906034029 26 27 0.0 0.0 0.00 0.00 0.00 90 1010.6
20260906033930 26 27 0.0 0.0 0.00 0.00 0.00 90 1010.6
20260906033825 26 27 0.0 0.0 0.00 0.00 0.00 90 1010.6
20260906033724 26 27 0.0 0.0 0.00 0.00 0.00 90 1010.7
20260906033623 26 28 0.0 0.0 0.00 0.00 0.00 90 1010.7
20260906033523 26 27 0.0 0.0 0.00 0.00 0.00 90 1010.6
20260906033420 26 28 0.0 0.0 0.00 0.00 0.00 90 1010.7
20260906033320 26 28 0.0 0.0 0.00 0.00 0.00 90 1010.7
20260906033219 26 28 0.0 0.0 0.00 0.00 0.00 90 1010.7
20260906033117 26 28 0.0 0.0 0.00 0.00 0.00 90 1010.6
20260906033007 26 28 0.0 0.0 0.00 0.00 0.00 90 1010.6
20260906032905 26 28 0.0 0.0 0.00 0.00 0.00 90 1010.7
20260906032802 26 28 0.0 0.0 0.00 0.00 0.00 89 1010.7
20260906032704 26 28 0.0 0.0 0.00 0.00 0.00 89 1010.7
20260906032603 26 28 0.0 1.6 0.00 0.00 0.00 89 1010.7
20260906032502 26 28 0.0 3.2 0.00 0.00 0.00 89 1010.7
20260906032404 26 27 0.0 6.4 0.00 0.00 0.00 89 1010.7
20260906032305 26 28 0.0 9.7 0.00 0.00 0.00 89 1010.7
20260906032203 26 28 0.0 9.7 0.00 0.00 0.00 90 1010.7
20260906032102 26 27 0.0 9.7 0.00 0.00 0.00 90 1010.7
20260906032003 26 27 0.0 9.7 0.00 0.00 0.00 90 1010.6
20260906031902 26 27 0.0 9.7 0.00 0.00 0.00 90 1010.7
20260906031802 26 30 0.0 9.7 0.00 0.00 0.00 90 1010.6
20260906031702 26 30 1.6 9.7 0.00 0.00 0.00 90 1010.7
20260906031602 26 30 4.8 9.7 0.00 0.00 0.00 90 1010.7
20260906031504 26 30 6.4 9.7 0.00 0.00 0.00 90 1010.6
20260906031403 26 27 6.4 9.7 0.00 0.00 0.00 90 1010.6
20260906031301 26 27 6.4 9.7 0.00 0.00 0.00 90 1010.6
20260906031203 26 31 4.8 6.4 0.00 0.00 0.00 90 1010.6
20260906031102 26 24 3.2 6.4 0.00 0.00 0.00 90 1010.6
20260906031004 26 18 3.2 6.4 0.00 0.00 0.00 90 1010.6
20260906030902 26 18 3.2 6.4 0.00 0.00 0.00 90 1010.5
20260906030803 26 18 3.2 6.4 0.00 0.00 0.00 90 1010.5
20260906030701 26 14 3.2 6.4 0.00 0.00 0.00 90 1010.5
20260906030600 26 14 3.2 6.4 0.00 0.00 0.00 90 1010.5
20260906030459 26 14 3.2 6.4 0.00 0.00 0.00 90 1010.5
20260906030356 26 14 4.8 6.4 0.00 0.00 0.00 91 1010.5
20260906030254 26 14 3.2 6.4 0.00 0.00 0.00 91 1010.6
20260906030154 26 11 3.2 6.4 0.00 0.00 0.00 91 1010.6
20260906030052 26 11 3.2 6.4 0.00 0.00 0.00 90 1010.6
20260906025951 26 11 3.2 6.4 0.00 0.00 0.00 90 1010.6
20260906025849 26 11 3.2 6.4 0.00 0.00 0.00 90 1010.6
20260906025746 26 11 4.8 6.4 0.00 0.00 0.00 90 1010.6
20260906025647 26 11 4.8 6.4 0.00 0.00 0.00 90 1010.6
20260906025543 26 11 4.8 6.4 0.00 0.00 0.00 90 1010.6
20260906025444 26 10 4.8 6.4 0.00 0.00 0.00 90 1010.6
20260906025341 26 10 4.8 6.4 0.00 0.00 0.00 90 1010.5
20260906025238 26 10 4.8 6.4 0.00 0.00 0.00 90 1010.6
20260906025137 26 10 3.2 6.4 0.00 0.00 0.00 90 1010.5
20260906025037 26 10 3.2 6.4 0.00 0.00 0.00 90 1010.5
20260906024937 26 10 4.8 6.4 0.00 0.00 0.00 90 1010.5
20260906024839 26 10 4.8 6.4 0.00 0.00 0.00 90 1010.4
20260906024737 26 10 4.8 6.4 0.00 0.00 0.00 90 1010.4
20260906024637 26 10 4.8 6.4 0.00 0.00 0.00 90 1010.3
20260906024537 26 10 3.2 6.4 0.00 0.00 0.00 90 1010.3
20260906024436 26 10 3.2 6.4 0.00 0.00 0.00 90 1010.3
20260906024338 26 10 3.2 6.4 0.00 0.00 0.00 90 1010.2
20260906024239 26 10 4.8 6.4 0.00 0.00 0.00 90 1010.3
20260906024137 26 10 4.8 6.4 0.00 0.00 0.00 90 1010.3
20260906024038 26 10 4.8 4.8 0.00 0.00 0.00 89 1010.2
20260906023937 26 10 3.2 4.8 0.00 0.00 0.00 89 1010.3
20260906023837 26 16 3.2 4.8 0.00 0.00 0.00 89 1010.2
20260906023738 26 16 3.2 6.4 0.00 0.00 0.00 89 1010.2
20260906023638 26 16 3.2 6.4 0.00 0.00 0.00 89 1010.3
20260906023536 26 16 3.2 6.4 0.00 0.00 0.00 89 1010.2
20260906023436 26 16 3.2 6.4 0.00 0.00 0.00 89 1010.2
20260906023337 26 16 3.2 6.4 0.00 0.00 0.00 89 1010.2
20260906023236 26 17 3.2 6.4 0.00 0.00 0.00 89 1010.1
20260906023137 26 16 3.2 6.4 0.00 0.00 0.00 89 1010.1
20260906023037 26 16 3.2 6.4 0.00 0.00 0.00 89 1010.1
20260906022937 26 16 3.2 6.4 0.00 0.00 0.00 89 1010.1
20260906022836 26 16 3.2 6.4 0.00 0.00 0.00 89 1010.0
20260906022736 26 17 3.2 6.4 0.00 0.00 0.00 89 1010.1
20260906022638 26 16 3.2 6.4 0.00 0.00 0.00 89 1010.1
20260906022536 26 17 3.2 6.4 0.00 0.00 0.00 89 1010.0
20260906022436 26 17 3.2 6.4 0.00 0.00 0.00 88 1010.0
20260906022338 26 17 1.6 6.4 0.00 0.00 0.00 88 1010.0
20260906022236 26 17 3.2 6.4 0.00 0.00 0.00 88 1009.9
20260906022136 26 17 3.2 6.4 0.00 0.00 0.00 88 1009.9
20260906022037 26 17 3.2 6.4 0.00 0.00 0.00 88 1009.9
20260906021938 26 17 4.8 6.4 0.00 0.00 0.00 88 1009.9
20260906021837 26 17 3.2 6.4 0.00 0.00 0.00 88 1009.8
20260906021736 26 17 3.2 6.4 0.00 0.00 0.00 88 1009.9
20260906021637 27 28 3.2 6.4 0.00 0.00 0.00 88 1009.8
20260906021536 27 28 3.2 6.4 0.00 0.00 0.00 88 1009.8
20260906021436 27 28 3.2 6.4 0.00 0.00 0.00 88 1009.8
20260906021338 27 30 3.2 6.4 0.00 0.00 0.00 88 1009.8
20260906021238 27 28 4.8 6.4 0.00 0.00 0.00 88 1009.8
20260906021135 26 28 3.2 9.7 0.00 0.00 0.00 88 1009.9
20260906021035 26 25 3.2 9.7 0.00 0.00 0.00 88 1009.9
20260906020936 26 25 3.2 9.7 0.00 0.00 0.00 88 1009.9
20260906020836 26 25 3.2 9.7 0.00 0.00 0.00 88 1009.8
20260906020734 26 27 3.2 9.7 0.00 0.00 0.00 88 1009.8
20260906020632 26 25 3.2 9.7 0.00 0.00 0.00 88 1009.8
20260906020532 26 24 4.8 9.7 0.00 0.00 0.00 89 1009.9
20260906020431 26 25 4.8 9.7 0.00 0.00 0.00 89 1009.9
20260906020332 26 25 4.8 9.7 0.00 0.00 0.00 88 1009.9
20260906020233 26 25 6.4 9.7 0.00 0.00 0.00 89 1010.0
20260906020131 26 25 6.4 9.7 0.00 0.00 0.00 89 1010.0
20260906020031 26 28 8.0 9.7 0.00 0.00 0.00 88 1010.0
20260906015933 26 25 8.0 9.7 0.00 0.00 0.00 88 1010.0
20260906015832 26 24 6.4 9.7 0.00 0.00 0.00 88 1010.0
20260906015731 26 30 4.8 9.7 0.00 0.00 0.00 88 1010.0
20260906015631 26 31 3.2 8.0 0.00 0.03 0.00 88 1009.9
20260906015532 26 18 4.8 8.0 0.00 0.03 0.00 88 1009.9
20260906015434 26 17 4.8 8.0 0.00 0.03 0.00 88 1009.9
20260906015332 27 17 4.8 8.0 0.00 0.03 0.00 88 1009.9
20260906015232 27 17 4.8 8.0 0.00 0.03 0.00 88 1009.9
20260906015131 27 27 3.2 8.0 0.00 0.03 0.00 88 1009.9
20260906015033 27 30 4.8 9.7 0.00 0.03 0.00 88 1009.9
20260906014934 27 30 6.4 9.7 0.00 0.03 0.00 88 1010.0
20260906014831 27 25 4.8 11.3 0.00 0.03 0.00 88 1009.9
20260906014730 27 24 6.4 11.3 0.00 0.03 0.00 88 1009.9
20260906014630 27 23 6.4 11.3 0.00 0.03 0.00 88 1010.0
20260906014533 27 28 6.4 11.3 0.00 0.03 0.00 88 1009.9
20260906014431 27 27 8.0 11.3 0.00 0.03 0.00 88 1010.0
20260906014330 27 20 6.4 11.3 0.00 0.03 0.00 88 1010.0
20260906014231 27 28 6.4 11.3 0.00 0.03 0.00 88 1010.0
20260906014112 27 25 8.0 11.3 0.00 0.03 0.00 88 1009.9
20260906014011 27 27 8.0 14.5 0.00 0.03 0.00 88 1009.9
20260906013910 26 21 6.4 14.5 0.00 0.03 0.00 88 1009.9
20260906013808 27 25 8.0 14.5 0.00 0.03 0.00 88 1009.9
20260906013707 27 31 8.0 14.5 0.00 0.03 0.00 88 1009.8
20260906013605 26 31 6.4 14.5 0.00 0.03 0.00 89 1009.8
20260906013505 26 24 4.8 14.5 0.00 0.03 0.00 89 1009.8
20260906013403 26 25 6.4 14.5 0.00 0.03 0.00 89 1009.7
20260906013304 26 34 8.0 14.5 0.00 0.03 0.00 89 1009.7
20260906013202 26 24 8.0 14.5 0.00 0.03 0.00 89 1009.7
20260906013102 26 23 8.0 14.5 0.00 0.03 0.00 89 1009.7
20260906013003 26 25 6.4 11.3 0.00 0.03 0.00 89 1009.6
20260906012904 26 24 8.0 11.3 0.00 0.03 0.00 89 1009.7
20260906012804 26 32 8.0 14.5 0.00 0.03 0.00 89 1009.7
20260906012703 26 28 8.0 14.5 0.00 0.03 0.00 89 1009.6
20260906012603 26 23 8.0 14.5 0.00 0.03 0.00 89 1009.7
20260906012503 26 28 8.0 14.5 0.00 0.03 0.00 89 1009.6
20260906012402 26 30 9.7 16.1 0.00 0.03 0.00 89 1009.6
20260906012306 26 25 9.7 16.1 0.00 0.03 0.00 89 1009.6
20260906012203 26 23 9.7 16.1 0.00 0.03 0.00 89 1009.7
20260906012102 26 28 9.7 16.1 0.00 0.03 0.00 89 1009.7
20260906012002 26 27 11.3 16.1 0.00 0.03 0.00 89 1009.7
20260906011904 26 27 9.7 16.1 0.00 0.03 0.00 89 1009.6
20260906011803 26 25 6.4 16.1 0.00 0.03 0.00 89 1009.6
20260906011703 26 18 4.8 16.1 0.00 0.03 0.00 89 1009.6
20260906011603 26 28 8.0 16.1 0.00 0.03 0.00 89 1009.6
20260906011504 26 25 11.3 16.1 0.00 0.03 0.00 89 1009.6
20260906011403 26 30 8.0 16.1 0.00 0.03 0.00 89 1009.5
20260906011302 26 30 6.4 16.1 0.00 0.03 0.00 89 1009.5
20260906011204 26 18 6.4 16.1 0.00 0.03 0.00 89 1009.5
20260906011102 26 27 8.0 16.1 0.00 0.03 0.00 89 1009.5
20260906011003 26 30 6.4 16.1 0.00 0.03 0.00 89 1009.5
20260906010903 26 24 6.4 16.1 0.00 0.03 0.00 89 1009.5
20260906010803 26 30 9.7 16.1 0.00 0.03 0.00 89 1009.5
20260906010701 26 25 8.0 16.1 0.00 0.03 0.00 89 1009.5
20260906010602 26 24 8.0 16.1 0.00 0.03 0.00 89 1009.5
20260906010505 26 32 9.7 16.1 0.00 0.03 0.00 89 1009.6
20260906010404 26 17 8.0 16.1 0.00 0.03 0.00 89 1009.6
20260906010302 26 32 8.0 16.1 0.00 0.03 0.00 89 1009.5
20260906010204 26 24 8.0 16.1 0.00 0.03 0.00 89 1009.5
20260906010103 26 30 8.0 16.1 0.00 0.03 0.00 90 1009.6
20260906010004 26 28 9.7 16.1 0.00 0.03 0.00 89 1009.6
20260906005902 26 31 9.7 16.1 0.00 0.03 0.00 89 1009.6
20260906005804 26 23 8.0 11.3 0.00 0.03 0.00 90 1009.6
20260906005702 26 28 8.0 11.3 0.00 0.03 0.00 90 1009.6
20260906005602 26 30 8.0 11.3 0.00 0.03 0.00 90 1009.5
20260906005505 26 28 8.0 14.5 0.00 0.03 0.00 89 1009.5
20260906005402 26 16 6.4 14.5 0.00 0.03 0.00 89 1009.6
20260906005306 26 18 9.7 14.5 0.00 0.03 0.00 89 1009.6
20260906005203 26 20 8.0 14.5 0.00 0.03 0.00 89 1009.6
20260906005103 27 21 4.8 14.5 0.00 0.03 0.00 89 1009.6
20260906005003 27 23 4.8 14.5 0.00 0.03 0.00 89 1009.6
20260906004903 27 21 8.0 14.5 0.00 0.03 0.00 89 1009.6
20260906004804 27 14 8.0 14.5 0.00 0.03 0.00 89 1009.5
20260906004702 27 23 9.7 14.5 0.00 0.03 0.00 89 1009.6
20260906004602 27 24 8.0 14.5 0.00 0.03 0.00 89 1009.6
20260906004504 27 18 6.4 9.7 0.00 0.03 0.00 89 1009.7
20260906004403 27 17 8.0 9.7 0.00 0.03 0.00 89 1009.6
20260906004302 27 16 8.0 9.7 0.00 0.03 0.00 89 1009.6
20260906004204 27 24 8.0 9.7 0.00 0.03 0.00 89 1009.7
20260906004103 27 14 6.4 9.7 0.00 0.03 0.00 89 1009.7
20260906004002 27 21 6.4 9.7 0.00 0.03 0.00 89 1009.7
20260906003901 27 16 6.4 14.5 0.00 0.03 0.00 88 1009.7
20260906003804 27 17 4.8 14.5 0.00 0.03 0.00 88 1009.7
20260906003702 27 20 6.4 16.1 0.00 0.03 0.00 88 1009.7
20260906003603 27 17 6.4 16.1 0.00 0.03 0.00 88 1009.6
20260906003503 27 17 6.4 17.7 0.00 0.03 0.00 88 1009.6
20260906003403 27 17 6.4 17.7 0.00 0.03 0.00 88 1009.7
20260906003304 27 17 6.4 17.7 0.00 0.03 0.00 88 1009.7
20260906003202 27 7 6.4 17.7 0.00 0.03 0.00 88 1009.7
20260906003102 27 17 9.7 17.7 0.00 0.03 0.00 88 1009.6
20260906003002 27 13 11.3 17.7 0.00 0.03 0.00 88 1009.7
20260906002902 27 28 11.3 17.7 0.00 0.03 0.00 88 1009.7
20260906002804 27 25 9.7 17.7 0.00 0.03 0.00 88 1009.6
20260906002704 27 20 11.3 17.7 0.00 0.03 0.00 88 1009.6
20260906002602 27 18 9.7 17.7 0.00 0.03 0.00 88 1009.7
20260906002502 27 27 8.0 14.5 0.00 0.03 0.00 88 1009.6
20260906002402 27 31 8.0 17.7 0.00 0.03 0.00 88 1009.6
20260906002306 27 28 8.0 19.3 0.00 0.03 0.00 88 1009.6
20260906002203 27 21 9.7 19.3 0.00 0.03 0.00 88 1009.6
20260906002103 27 23 9.7 19.3 0.00 0.03 0.00 87 1009.6
20260906002003 27 21 9.7 19.3 0.00 0.03 0.00 87 1009.7
20260906001903 27 30 9.7 19.3 0.00 0.03 0.00 87 1009.7
20260906001803 27 18 8.0 19.3 0.00 0.03 0.00 87 1009.6
20260906001702 27 18 8.0 20.9 0.00 0.03 0.00 87 1009.6
20260906001603 27 27 9.7 20.9 0.00 0.03 0.00 87 1009.7
20260906001503 27 34 12.9 20.9 0.00 0.03 0.00 87 1009.7
20260906001403 27 27 11.3 20.9 0.00 0.03 0.00 87 1009.7
20260906001302 27 32 9.7 20.9 0.00 0.03 0.00 86 1009.7
20260906001201 27 27 8.0 20.9 0.00 0.03 0.00 86 1009.8
20260906001104 27 21 9.7 20.9 0.00 0.03 0.00 86 1009.8
20260906001002 27 30 12.9 20.9 0.00 0.03 0.00 86 1009.8
20260906000903 27 32 11.3 22.5 0.00 0.03 0.00 86 1009.8
20260906000803 27 27 12.9 25.7 0.00 0.03 0.00 86 1009.8
20260906000704 27 24 12.9 25.7 0.00 0.03 0.00 85 1009.9
20260906000603 27 28 14.5 25.7 0.00 0.03 0.00 85 1009.9
20260906000503 28 21 14.5 25.7 0.00 0.03 0.00 85 1010.0
20260906000403 28 30 14.5 25.7 0.00 0.03 0.00 85 1009.9
20260906000303 28 86 12.9 25.7 0.00 0.03 0.00 85 1010.0
20260906000204 28 100 12.9 25.7 0.00 0.03 0.00 85 1009.9
20260906000104 28 82 16.1 25.7 0.00 0.03 0.00 85 1009.8
20260906000004 28 80 16.1 25.7 0.00 0.03 0.00 85 1009.9
20260905235902 28 76 14.5 25.7 0.00 0.03 0.00 85 1009.8
20260905235802 28 62 11.3 22.5 0.00 0.03 0.00 85 1009.8
20260905235703 28 62 11.3 22.5 0.00 0.03 0.00 84 1009.8
20260905235603 28 59 12.9 22.5 0.00 0.03 0.00 84 1009.9
20260905235503 28 76 14.5 22.5 0.00 0.03 0.00 84 1009.9
20260905235402 28 59 14.5 22.5 0.00 0.03 0.00 84 1009.9
20260905235306 28 94 16.1 22.5 0.00 0.03 0.00 84 1009.9
20260905235202 28 76 14.5 20.9 0.00 0.03 0.00 84 1010.0
20260905235102 28 85 14.5 20.9 0.00 0.03 0.00 84 1009.9
20260905235003 28 96 16.1 20.9 0.00 0.03 0.00 84 1009.9
20260905234903 28 92 14.5 20.9 0.00 0.03 0.00 84 1009.9
20260905234803 28 78 11.3 20.9 0.00 0.03 0.00 84 1009.8
20260905234703 28 86 9.7 22.5 0.00 0.03 0.00 84 1009.9
20260905234602 28 107 11.3 22.5 0.00 0.03 0.00 84 1009.9
20260905234502 28 116 11.3 22.5 0.00 0.03 0.00 83 1009.9
20260905234402 28 76 11.3 22.5 0.00 0.03 0.00 83 1009.8
20260905234303 28 71 14.5 22.5 0.00 0.03 0.00 83 1009.9
20260905234204 28 92 14.5 22.5 0.00 0.03 0.00 83 1010.0
20260905234103 28 90 11.3 22.5 0.00 0.03 0.00 83 1010.0
20260905234004 28 85 12.9 24.1 0.00 0.03 0.00 83 1010.0
20260905233903 29 89 14.5 24.1 0.00 0.03 0.00 82 1010.0
20260905233803 29 92 12.9 24.1 0.00 0.03 0.00 82 1010.2
20260905233704 29 102 12.9 24.1 0.00 0.03 0.00 82 1010.2
20260905233603 29 65 14.5 24.1 0.00 0.03 0.00 82 1010.2
20260905233503 29 62 14.5 24.1 0.00 0.03 0.00 82 1010.2
20260905233403 29 102 12.9 24.1 0.00 0.03 0.00 81 1010.3
20260905233304 29 56 14.5 24.1 0.00 0.03 0.00 81 1010.3
20260905233203 29 44 16.1 24.1 0.00 0.03 0.00 80 1010.4
20260905233102 30 66 17.7 24.1 0.00 0.03 0.00 80 1010.4
20260905233004 30 83 17.7 24.1 0.00 0.03 0.00 80 1010.3
20260905232903 30 54 16.1 24.1 0.00 0.03 0.00 80 1010.3
20260905232802 30 125 17.7 24.1 0.00 0.03 0.00 79 1010.3
20260905232702 30 39 17.7 24.1 0.00 0.03 0.00 78 1010.3
20260905232603 30 13 16.1 24.1 0.00 0.03 0.00 78 1010.3
20260905232503 30 16 17.7 24.1 0.00 0.03 0.00 77 1010.2
20260905232403 30 28 16.1 24.1 0.00 0.03 0.00 77 1010.2
20260905232306 30 21 14.5 24.1 0.00 0.03 0.00 77 1010.2
20260905232202 30 18 14.5 24.1 0.00 0.03 0.00 76 1010.2
20260905232101 30 6 12.9 22.5 0.00 0.03 0.00 75 1010.1
20260905232002 30 16 12.9 22.5 0.00 0.03 0.00 75 1010.2
20260905231903 30 6 14.5 22.5 0.00 0.03 0.00 75 1010.1
20260905231802 30 0 12.9 17.7 0.00 0.03 0.00 75 1010.1
20260905231702 30 20 11.3 17.7 0.00 0.03 0.00 75 1010.1
20260905231603 30 16 9.7 17.7 0.00 0.03 0.00 74 1010.1
20260905231502 31 16 9.7 17.7 0.00 0.03 0.00 74 1010.0
20260905231401 31 0 8.0 17.7 0.00 0.03 0.00 73 1010.0
20260905231303 31 37 6.4 17.7 0.00 0.03 0.00 73 1010.0
20260905231202 31 17 8.0 17.7 0.00 0.03 0.00 73 1009.9
20260905231103 31 44 9.7 17.7 0.00 0.03 0.00 72 1009.9
20260905231001 31 27 9.7 17.7 0.00 0.03 0.00 72 1009.8
20260905230903 31 51 9.7 17.7 0.00 0.03 0.00 71 1009.8
20260905230803 31 30 8.0 14.5 0.00 0.03 0.00 71 1009.8
20260905230702 31 87 6.4 14.5 0.00 0.03 0.00 71 1009.8
20260905230603 31 82 6.4 14.5 0.00 0.03 0.00 71 1009.8
20260905230503 31 58 6.4 14.5 0.00 0.03 0.00 71 1009.7
20260905230403 31 62 8.0 16.1 0.00 0.03 0.00 70 1009.7
20260905230302 31 45 8.0 16.1 0.00 0.03 0.00 70 1009.7
20260905230204 31 92 9.7 16.1 0.00 0.03 0.00 70 1009.8
20260905230002 31 61 8.0 16.1 0.00 0.03 0.00 70 1009.7
20260905225903 31 78 8.0 16.1 0.00 0.03 0.00 69 1009.7
20260905225803 31 90 8.0 16.1 0.00 0.03 0.00 69 1009.7
20260905225702 31 56 9.7 16.1 0.00 0.03 0.00 69 1009.6
20260905225602 31 71 9.7 16.1 0.00 0.03 0.00 69 1009.7
20260905225504 31 79 11.3 17.7 0.00 0.03 0.00 69 1009.7
20260905225401 31 82 9.7 17.7 0.00 0.03 0.00 69 1009.6
20260905225305 31 99 8.0 17.7 0.00 0.03 0.00 69 1009.6
20260905225203 31 124 8.0 17.7 0.00 0.03 0.00 69 1009.6
20260905225102 31 93 8.0 17.7 0.00 0.03 0.00 69 1009.6
20260905225002 31 87 8.0 17.7 0.00 0.03 0.00 69 1009.6
20260905224903 31 82 9.7 17.7 0.00 0.03 0.00 70 1009.6
20260905224803 31 92 9.7 17.7 0.00 0.03 0.00 70 1009.5
20260905224702 31 89 11.3 17.7 0.00 0.03 0.00 70 1009.5
20260905224602 31 97 9.7 17.7 0.00 0.03 0.00 71 1009.5
20260905224503 31 76 8.0 11.3 0.00 0.03 0.00 71 1009.4
20260905224401 31 78 8.0 11.3 0.00 0.03 0.00 71 1009.4
20260905224259 31 104 9.7 14.5 0.00 0.03 0.00 71 1009.4
20260905224158 31 87 9.7 14.5 0.00 0.03 0.00 70 1009.4
20260905224057 31 80 9.7 14.5 0.00 0.03 0.00 70 1009.4
20260905223953 31 79 8.0 14.5 0.00 0.03 0.00 70 1009.3
20260905223854 31 82 8.0 14.5 0.00 0.03 0.00 70 1009.4
20260905223751 32 114 8.0 14.5 0.00 0.03 0.00 70 1009.5
20260905223650 32 90 9.7 17.7 0.00 0.03 0.00 70 1009.4
20260905223549 32 123 8.0 17.7 0.00 0.03 0.00 70 1009.4
20260905223448 32 78 9.7 17.7 0.00 0.03 0.00 70 1009.4
20260905223346 32 94 11.3 17.7 0.00 0.03 0.00 70 1009.6
20260905223246 32 80 9.7 17.7 0.00 0.03 0.00 70 1009.5
20260905223144 32 104 8.0 17.7 0.00 0.03 0.00 70 1009.6
20260905223041 32 87 8.0 17.7 0.00 0.03 0.00 70 1009.5
20260905222937 32 69 9.7 17.7 0.00 0.03 0.00 70 1009.5
20260905222835 32 83 11.3 17.7 0.00 0.03 0.00 70 1009.6
20260905222735 32 66 9.7 17.7 0.00 0.03 0.00 70 1009.6
20260905222632 32 80 9.7 17.7 0.00 0.03 0.00 70 1009.6
20260905222532 32 85 9.7 17.7 0.00 0.03 0.00 70 1009.7
20260905222431 32 92 11.3 17.7 0.00 0.03 0.00 70 1009.6
20260905222331 32 100 12.9 17.7 0.00 0.03 0.00 70 1009.6
20260905222231 32 99 11.3 17.7 0.00 0.03 0.00 70 1009.6
20260905222131 32 90 8.0 14.5 0.00 0.03 0.00 70 1009.6
20260905222031 32 69 6.4 11.3 0.00 0.03 0.00 71 1009.5
20260905221931 32 56 6.4 11.3 0.00 0.03 0.00 70 1009.5
20260905221831 32 52 6.4 11.3 0.00 0.03 0.00 70 1009.5
20260905221733 32 71 6.4 11.3 0.00 0.03 0.00 70 1009.5
20260905221633 32 109 6.4 11.3 0.00 0.03 0.00 70 1009.5
20260905221532 32 133 4.8 11.3 0.00 0.03 0.00 71 1009.5
20260905221432 31 96 6.4 11.3 0.00 0.03 0.00 71 1009.4
20260905221331 32 94 8.0 11.3 0.00 0.03 0.00 71 1009.4
20260905221231 31 94 8.0 11.3 0.00 0.03 0.00 72 1009.3
20260905221131 31 92 8.0 11.3 0.00 0.03 0.00 71 1009.3
20260905221032 31 66 6.4 11.3 0.00 0.03 0.00 72 1009.4
20260905220931 31 49 6.4 11.3 0.00 0.03 0.00 72 1009.4
20260905220831 31 90 8.0 11.3 0.00 0.03 0.00 73 1009.3
20260905220732 31 51 3.2 8.0 0.00 0.03 0.00 73 1009.3
20260905220632 31 49 0.0 6.4 0.00 0.03 0.00 74 1009.4
20260905220531 31 0 0.0 0.0 0.00 0.03 0.00 74 1009.3
20260905220431 31 347 0.0 0.0 0.00 0.03 0.00 75 1009.3
20260905220331 31 347 0.0 0.0 0.00 0.03 0.00 75 1009.4
20260905220232 30 347 0.0 0.0 0.00 0.03 0.00 75 1009.5
20260905220131 30 347 0.0 0.0 0.00 0.03 0.00 75 1009.4
20260905220032 30 347 0.0 0.0 0.00 0.03 0.00 76 1009.4
20260905215932 30 347 0.0 0.0 0.00 0.03 0.00 76 1009.5
20260905215831 30 347 0.0 0.0 0.00 0.03 0.00 76 1009.5
20260905215731 30 347 0.0 0.0 0.00 0.03 0.00 76 1009.4
20260905215631 30 347 0.0 3.2 0.00 0.03 0.00 76 1009.5
20260905215532 30 347 0.0 4.8 0.00 0.03 0.00 76 1009.5
20260905215432 30 345 0.0 4.8 0.00 0.03 0.00 76 1009.5
20260905215333 30 327 0.0 4.8 0.00 0.03 0.00 76 1009.5
20260905215232 30 327 0.0 4.8 0.00 0.03 0.00 77 1009.5
20260905215130 30 327 0.0 4.8 0.00 0.03 0.00 77 1009.5
20260905215032 30 327 0.0 6.4 0.00 0.03 0.00 77 1009.5
20260905214931 30 327 0.0 6.4 0.00 0.03 0.00 76 1009.4
20260905214832 30 327 1.6 6.4 0.00 0.03 0.00 76 1009.4
20260905214731 30 327 1.6 6.4 0.00 0.03 0.00 76 1009.3